| time (UTC) | temp F | wind direction | speed MPH | gust MPH | rain 1hr in | rain 24hr in | rain mn in | humidity % | barometer mb |
| 20260502194903 | 60 | 0 | 0.0 | 0.0 | 0.00 | 0.00 | 0.00 | 53 | 1022.2 |
| 20260502194803 | 60 | 0 | 0.0 | 0.0 | 0.00 | 0.00 | 0.00 | 53 | 1022.3 |
| 20260502194703 | 60 | 0 | 0.0 | 0.0 | 0.00 | 0.00 | 0.00 | 53 | 1022.3 |
| 20260502194603 | 60 | 292 | 0.0 | 2.0 | 0.00 | 0.00 | 0.00 | 53 | 1022.3 |
| 20260502194503 | 60 | 292 | 0.0 | 2.0 | 0.00 | 0.00 | 0.00 | 53 | 1022.3 |
| 20260502194403 | 60 | 292 | 0.0 | 2.0 | 0.00 | 0.00 | 0.00 | 53 | 1022.4 |
| 20260502194303 | 60 | 292 | 0.0 | 2.0 | 0.00 | 0.00 | 0.00 | 53 | 1022.4 |
| 20260502194203 | 60 | 292 | 0.0 | 2.0 | 0.00 | 0.00 | 0.00 | 53 | 1022.2 |
| 20260502194103 | 60 | 292 | 0.0 | 2.0 | 0.00 | 0.00 | 0.00 | 53 | 1022.3 |
| 20260502194003 | 60 | 292 | 0.0 | 2.0 | 0.00 | 0.00 | 0.00 | 53 | 1022.3 |
| 20260502193903 | 60 | 292 | 0.0 | 2.0 | 0.00 | 0.00 | 0.00 | 53 | 1022.3 |
| 20260502193803 | 60 | 292 | 0.0 | 2.0 | 0.00 | 0.00 | 0.00 | 53 | 1022.3 |
| 20260502193703 | 60 | 292 | 0.0 | 2.0 | 0.00 | 0.00 | 0.00 | 53 | 1022.3 |
| 20260502193603 | 60 | 0 | 0.0 | 0.0 | 0.00 | 0.00 | 0.00 | 52 | 1022.2 |
| 20260502193503 | 60 | 0 | 0.0 | 0.0 | 0.00 | 0.00 | 0.00 | 52 | 1022.3 |
| 20260502193403 | 61 | 0 | 0.0 | 0.0 | 0.00 | 0.00 | 0.00 | 52 | 1022.2 |
| 20260502193303 | 61 | 0 | 0.0 | 0.0 | 0.00 | 0.00 | 0.00 | 52 | 1022.3 |
| 20260502193203 | 61 | 0 | 0.0 | 0.0 | 0.00 | 0.00 | 0.00 | 52 | 1022.3 |
| 20260502193103 | 61 | 0 | 0.0 | 0.0 | 0.00 | 0.00 | 0.00 | 52 | 1022.3 |
| 20260502193003 | 61 | 0 | 0.0 | 0.0 | 0.00 | 0.00 | 0.00 | 52 | 1022.2 |
| 20260502192903 | 61 | 0 | 0.0 | 0.0 | 0.00 | 0.00 | 0.00 | 52 | 1022.2 |
| 20260502192803 | 61 | 0 | 0.0 | 0.0 | 0.00 | 0.00 | 0.00 | 52 | 1022.3 |
| 20260502192703 | 61 | 306 | 0.0 | 2.0 | 0.00 | 0.00 | 0.00 | 51 | 1022.2 |
| 20260502192603 | 61 | 306 | 0.0 | 2.0 | 0.00 | 0.00 | 0.00 | 51 | 1022.3 |
| 20260502192503 | 61 | 306 | 0.0 | 2.0 | 0.00 | 0.00 | 0.00 | 51 | 1022.3 |
| 20260502192403 | 61 | 299 | 0.0 | 2.0 | 0.00 | 0.00 | 0.00 | 51 | 1022.2 |
| 20260502192305 | 61 | 299 | 0.0 | 2.0 | 0.00 | 0.00 | 0.00 | 51 | 1022.3 |
| 20260502192203 | 61 | 299 | 0.0 | 2.0 | 0.00 | 0.00 | 0.00 | 51 | 1022.2 |
| 20260502192103 | 61 | 296 | 0.0 | 4.0 | 0.00 | 0.00 | 0.00 | 51 | 1022.3 |
| 20260502192003 | 61 | 299 | 0.0 | 4.0 | 0.00 | 0.00 | 0.00 | 51 | 1022.3 |
| 20260502191903 | 61 | 302 | 0.0 | 4.0 | 0.00 | 0.00 | 0.00 | 51 | 1022.2 |
| 20260502191803 | 61 | 302 | 0.0 | 4.0 | 0.00 | 0.00 | 0.00 | 51 | 1022.3 |
| 20260502191703 | 61 | 298 | 0.0 | 4.0 | 0.00 | 0.00 | 0.00 | 51 | 1022.3 |
| 20260502191603 | 61 | 298 | 0.0 | 4.0 | 0.00 | 0.00 | 0.00 | 51 | 1022.3 |
| 20260502191503 | 61 | 298 | 0.0 | 4.0 | 0.00 | 0.00 | 0.00 | 51 | 1022.3 |
| 20260502191403 | 61 | 299 | 0.0 | 4.0 | 0.00 | 0.00 | 0.00 | 51 | 1022.3 |
| 20260502191303 | 61 | 299 | 0.0 | 4.0 | 0.00 | 0.00 | 0.00 | 51 | 1022.2 |
| 20260502191204 | 61 | 298 | 0.0 | 4.0 | 0.00 | 0.00 | 0.00 | 51 | 1022.1 |
| 20260502191104 | 61 | 300 | 0.0 | 3.0 | 0.00 | 0.00 | 0.00 | 51 | 1022.2 |
| 20260502191004 | 61 | 298 | 0.0 | 3.0 | 0.00 | 0.00 | 0.00 | 51 | 1022.2 |
| 20260502190904 | 61 | 298 | 0.0 | 3.0 | 0.00 | 0.00 | 0.00 | 51 | 1022.2 |
| 20260502190804 | 61 | 292 | 0.0 | 3.0 | 0.00 | 0.00 | 0.00 | 51 | 1022.2 |
| 20260502190704 | 61 | 292 | 0.0 | 2.0 | 0.00 | 0.00 | 0.00 | 51 | 1022.2 |
| 20260502190604 | 61 | 302 | 0.0 | 2.0 | 0.00 | 0.00 | 0.00 | 51 | 1022.1 |
| 20260502190504 | 61 | 299 | 0.0 | 3.0 | 0.00 | 0.00 | 0.00 | 51 | 1022.2 |
| 20260502190404 | 61 | 296 | 0.0 | 5.0 | 0.00 | 0.00 | 0.00 | 51 | 1022.2 |
| 20260502190304 | 61 | 295 | 0.0 | 5.0 | 0.00 | 0.00 | 0.00 | 50 | 1022.1 |
| 20260502190204 | 61 | 293 | 0.0 | 5.0 | 0.00 | 0.00 | 0.00 | 51 | 1022.1 |
| 20260502190104 | 61 | 293 | 0.0 | 5.0 | 0.00 | 0.00 | 0.00 | 51 | 1022.1 |
| 20260502190004 | 61 | 293 | 0.0 | 5.0 | 0.00 | 0.00 | 0.00 | 50 | 1022.1 |
| 20260502185904 | 61 | 293 | 0.0 | 5.0 | 0.00 | 0.00 | 0.00 | 50 | 1022.1 |
| 20260502185804 | 61 | 293 | 0.0 | 5.0 | 0.00 | 0.00 | 0.00 | 50 | 1022.1 |
| 20260502185704 | 61 | 293 | 0.0 | 5.0 | 0.00 | 0.00 | 0.00 | 50 | 1022.0 |
| 20260502185604 | 61 | 292 | 0.0 | 5.0 | 0.00 | 0.00 | 0.00 | 50 | 1022.0 |
| 20260502185504 | 61 | 289 | 0.0 | 5.0 | 0.00 | 0.00 | 0.00 | 50 | 1022.0 |
| 20260502185404 | 61 | 282 | 0.0 | 2.0 | 0.00 | 0.00 | 0.00 | 50 | 1021.9 |
| 20260502185305 | 61 | 289 | 0.0 | 2.0 | 0.00 | 0.00 | 0.00 | 50 | 1022.0 |
| 20260502185204 | 61 | 337 | 0.0 | 1.0 | 0.00 | 0.00 | 0.00 | 50 | 1021.9 |
| 20260502185104 | 61 | 307 | 0.0 | 2.0 | 0.00 | 0.00 | 0.00 | 50 | 1022.0 |
| 20260502185004 | 61 | 307 | 0.0 | 2.0 | 0.00 | 0.00 | 0.00 | 50 | 1021.8 |
| 20260502184904 | 61 | 307 | 0.0 | 2.0 | 0.00 | 0.00 | 0.00 | 50 | 1021.8 |
| 20260502184804 | 61 | 307 | 0.0 | 2.0 | 0.00 | 0.00 | 0.00 | 50 | 1021.8 |
| 20260502184704 | 61 | 307 | 0.0 | 2.0 | 0.00 | 0.00 | 0.00 | 50 | 1021.9 |
| 20260502184604 | 61 | 307 | 0.0 | 2.0 | 0.00 | 0.00 | 0.00 | 50 | 1021.9 |
| 20260502184504 | 61 | 307 | 0.0 | 2.0 | 0.00 | 0.00 | 0.00 | 50 | 1021.9 |
| 20260502184404 | 61 | 307 | 0.0 | 2.0 | 0.00 | 0.00 | 0.00 | 50 | 1021.8 |
| 20260502184304 | 61 | 292 | 0.0 | 2.0 | 0.00 | 0.00 | 0.00 | 49 | 1021.8 |
| 20260502184204 | 61 | 292 | 0.0 | 2.0 | 0.00 | 0.00 | 0.00 | 50 | 1021.8 |
| 20260502184104 | 61 | 292 | 0.0 | 2.0 | 0.00 | 0.00 | 0.00 | 49 | 1021.7 |
| 20260502184004 | 61 | 292 | 0.0 | 2.0 | 0.00 | 0.00 | 0.00 | 49 | 1021.8 |
| 20260502183904 | 61 | 292 | 0.0 | 2.0 | 0.00 | 0.00 | 0.00 | 49 | 1021.8 |
| 20260502183804 | 61 | 308 | 0.0 | 3.0 | 0.00 | 0.00 | 0.00 | 49 | 1021.7 |
| 20260502183704 | 61 | 308 | 0.0 | 3.0 | 0.00 | 0.00 | 0.00 | 49 | 1021.7 |
| 20260502183604 | 61 | 302 | 0.0 | 3.0 | 0.00 | 0.00 | 0.00 | 49 | 1021.7 |
| 20260502183504 | 61 | 302 | 0.0 | 3.0 | 0.00 | 0.00 | 0.00 | 49 | 1021.7 |
| 20260502183404 | 61 | 299 | 0.0 | 4.0 | 0.00 | 0.00 | 0.00 | 49 | 1021.7 |
| 20260502183304 | 61 | 298 | 0.0 | 4.0 | 0.00 | 0.00 | 0.00 | 49 | 1021.6 |
| 20260502183204 | 61 | 298 | 0.0 | 4.0 | 0.00 | 0.00 | 0.00 | 48 | 1021.6 |
| 20260502183104 | 62 | 298 | 0.0 | 4.0 | 0.00 | 0.00 | 0.00 | 48 | 1021.6 |
| 20260502183004 | 62 | 296 | 0.0 | 4.0 | 0.00 | 0.00 | 0.00 | 48 | 1021.6 |
| 20260502182904 | 62 | 295 | 1.0 | 5.0 | 0.00 | 0.00 | 0.00 | 48 | 1021.6 |
| 20260502182804 | 62 | 292 | 0.0 | 5.0 | 0.00 | 0.00 | 0.00 | 48 | 1021.6 |
| 20260502182704 | 62 | 292 | 0.0 | 5.0 | 0.00 | 0.00 | 0.00 | 48 | 1021.6 |
| 20260502182604 | 62 | 292 | 0.0 | 5.0 | 0.00 | 0.00 | 0.00 | 48 | 1021.6 |
| 20260502182504 | 62 | 292 | 1.0 | 5.0 | 0.00 | 0.00 | 0.00 | 48 | 1021.5 |
| 20260502182404 | 62 | 292 | 1.0 | 5.0 | 0.00 | 0.00 | 0.00 | 48 | 1021.5 |
| 20260502182305 | 62 | 292 | 1.0 | 5.0 | 0.00 | 0.00 | 0.00 | 48 | 1021.4 |
| 20260502182204 | 62 | 292 | 1.0 | 5.0 | 0.00 | 0.00 | 0.00 | 47 | 1021.4 |
| 20260502182104 | 62 | 292 | 1.0 | 5.0 | 0.00 | 0.00 | 0.00 | 48 | 1021.4 |
| 20260502182003 | 62 | 292 | 1.0 | 5.0 | 0.00 | 0.00 | 0.00 | 47 | 1021.5 |
| 20260502181903 | 62 | 292 | 0.0 | 5.0 | 0.00 | 0.00 | 0.00 | 47 | 1021.4 |
| 20260502181803 | 62 | 292 | 0.0 | 5.0 | 0.00 | 0.00 | 0.00 | 47 | 1021.4 |
| 20260502181703 | 62 | 292 | 0.0 | 5.0 | 0.00 | 0.00 | 0.00 | 47 | 1021.4 |
| 20260502181604 | 62 | 294 | 0.0 | 5.0 | 0.00 | 0.00 | 0.00 | 47 | 1021.4 |
| 20260502181503 | 62 | 294 | 0.0 | 5.0 | 0.00 | 0.00 | 0.00 | 47 | 1021.4 |
| 20260502181403 | 62 | 295 | 0.0 | 5.0 | 0.00 | 0.00 | 0.00 | 47 | 1021.4 |
| 20260502181304 | 62 | 302 | 0.0 | 9.0 | 0.00 | 0.00 | 0.00 | 47 | 1021.4 |
| 20260502181204 | 62 | 309 | 0.0 | 9.0 | 0.00 | 0.00 | 0.00 | 47 | 1021.3 |
| 20260502181103 | 62 | 306 | 0.0 | 9.0 | 0.00 | 0.00 | 0.00 | 47 | 1021.3 |
| 20260502181003 | 62 | 306 | 1.0 | 9.0 | 0.00 | 0.00 | 0.00 | 47 | 1021.4 |
| 20260502180903 | 62 | 305 | 1.0 | 9.0 | 0.00 | 0.00 | 0.00 | 47 | 1021.4 |
| 20260502180803 | 62 | 305 | 1.0 | 9.0 | 0.00 | 0.00 | 0.00 | 47 | 1021.4 |
| 20260502180703 | 62 | 306 | 1.0 | 9.0 | 0.00 | 0.00 | 0.00 | 47 | 1021.3 |
| 20260502180603 | 62 | 304 | 1.0 | 9.0 | 0.00 | 0.00 | 0.00 | 47 | 1021.3 |
| 20260502180503 | 62 | 302 | 1.0 | 9.0 | 0.00 | 0.00 | 0.00 | 47 | 1021.2 |
| 20260502180403 | 62 | 300 | 1.0 | 9.0 | 0.00 | 0.00 | 0.00 | 47 | 1021.2 |
| 20260502180303 | 62 | 300 | 1.0 | 7.0 | 0.00 | 0.00 | 0.00 | 47 | 1021.2 |
| 20260502180203 | 62 | 299 | 1.0 | 7.0 | 0.00 | 0.00 | 0.00 | 47 | 1021.3 |
| 20260502180103 | 62 | 299 | 1.0 | 7.0 | 0.00 | 0.00 | 0.00 | 47 | 1021.2 |
| 20260502170503 | 63 | 296 | 2.0 | 7.0 | 0.00 | 0.00 | 0.00 | 46 | 1020.8 |
| 20260502170403 | 63 | 297 | 1.0 | 7.0 | 0.00 | 0.00 | 0.00 | 46 | 1020.7 |
| 20260502170303 | 63 | 296 | 1.0 | 7.0 | 0.00 | 0.00 | 0.00 | 46 | 1020.7 |
| 20260502170203 | 63 | 297 | 1.0 | 7.0 | 0.00 | 0.00 | 0.00 | 46 | 1020.7 |
| 20260502170103 | 64 | 294 | 1.0 | 7.0 | 0.00 | 0.00 | 0.00 | 46 | 1020.7 |
| 20260502164304 | 64 | 298 | 2.0 | 7.0 | 0.00 | 0.00 | 0.00 | 44 | 1020.6 |
| 20260502164204 | 64 | 297 | 2.0 | 7.0 | 0.00 | 0.00 | 0.00 | 44 | 1020.6 |
| 20260502164104 | 64 | 297 | 2.0 | 7.0 | 0.00 | 0.00 | 0.00 | 44 | 1020.7 |
| 20260502164004 | 64 | 298 | 2.0 | 9.0 | 0.00 | 0.00 | 0.00 | 44 | 1020.7 |
| 20260502163904 | 64 | 296 | 2.0 | 9.0 | 0.00 | 0.00 | 0.00 | 44 | 1020.7 |
| 20260502163804 | 64 | 296 | 2.0 | 9.0 | 0.00 | 0.00 | 0.00 | 44 | 1020.6 |
| 20260502163704 | 64 | 294 | 2.0 | 9.0 | 0.00 | 0.00 | 0.00 | 44 | 1020.6 |
| 20260502163604 | 64 | 293 | 2.0 | 9.0 | 0.00 | 0.00 | 0.00 | 44 | 1020.7 |
| 20260502163504 | 64 | 292 | 2.0 | 9.0 | 0.00 | 0.00 | 0.00 | 44 | 1020.7 |
| 20260502163404 | 64 | 292 | 2.0 | 9.0 | 0.00 | 0.00 | 0.00 | 44 | 1020.7 |
| 20260502163304 | 64 | 292 | 2.0 | 9.0 | 0.00 | 0.00 | 0.00 | 43 | 1020.7 |
| 20260502163204 | 64 | 295 | 2.0 | 9.0 | 0.00 | 0.00 | 0.00 | 43 | 1020.6 |
| 20260502163104 | 64 | 294 | 3.0 | 9.0 | 0.00 | 0.00 | 0.00 | 44 | 1020.6 |
| 20260502163004 | 64 | 293 | 2.0 | 7.0 | 0.00 | 0.00 | 0.00 | 45 | 1020.6 |
| 20260502162904 | 64 | 291 | 3.0 | 7.0 | 0.00 | 0.00 | 0.00 | 44 | 1020.4 |
| 20260502162804 | 64 | 290 | 3.0 | 7.0 | 0.00 | 0.00 | 0.00 | 44 | 1020.5 |
| 20260502162704 | 64 | 292 | 3.0 | 7.0 | 0.00 | 0.00 | 0.00 | 45 | 1020.6 |
| 20260502162604 | 64 | 291 | 3.0 | 7.0 | 0.00 | 0.00 | 0.00 | 45 | 1020.5 |
| 20260502162504 | 64 | 291 | 2.0 | 7.0 | 0.00 | 0.00 | 0.00 | 45 | 1020.5 |
| 20260502162404 | 64 | 290 | 2.0 | 7.0 | 0.00 | 0.00 | 0.00 | 45 | 1020.5 |
| 20260502162304 | 64 | 290 | 2.0 | 7.0 | 0.00 | 0.00 | 0.00 | 45 | 1020.4 |
| 20260502162204 | 64 | 288 | 2.0 | 7.0 | 0.00 | 0.00 | 0.00 | 45 | 1020.4 |
| 20260502162104 | 64 | 287 | 2.0 | 7.0 | 0.00 | 0.00 | 0.00 | 45 | 1020.5 |
| 20260502162004 | 64 | 288 | 2.0 | 7.0 | 0.00 | 0.00 | 0.00 | 45 | 1020.5 |
| 20260502161904 | 65 | 289 | 2.0 | 7.0 | 0.00 | 0.00 | 0.00 | 45 | 1020.4 |
| 20260502161804 | 65 | 293 | 2.0 | 7.0 | 0.00 | 0.00 | 0.00 | 45 | 1020.4 |
| 20260502161703 | 65 | 293 | 2.0 | 7.0 | 0.00 | 0.00 | 0.00 | 45 | 1020.4 |
| 20260502161604 | 65 | 296 | 2.0 | 7.0 | 0.00 | 0.00 | 0.00 | 45 | 1020.4 |
| 20260502161504 | 64 | 297 | 2.0 | 7.0 | 0.00 | 0.00 | 0.00 | 45 | 1020.4 |
| 20260502161403 | 65 | 299 | 2.0 | 7.0 | 0.00 | 0.00 | 0.00 | 45 | 1020.4 |
| 20260502161304 | 65 | 300 | 2.0 | 7.0 | 0.00 | 0.00 | 0.00 | 45 | 1020.5 |
| 20260502161203 | 65 | 302 | 1.0 | 7.0 | 0.00 | 0.00 | 0.00 | 45 | 1020.5 |
| 20260502161104 | 65 | 302 | 2.0 | 7.0 | 0.00 | 0.00 | 0.00 | 45 | 1020.6 |
| 20260502161004 | 65 | 302 | 2.0 | 7.0 | 0.00 | 0.00 | 0.00 | 45 | 1020.4 |
| 20260502160903 | 64 | 302 | 1.0 | 7.0 | 0.00 | 0.00 | 0.00 | 45 | 1020.4 |
| 20260502160804 | 65 | 303 | 1.0 | 6.0 | 0.00 | 0.00 | 0.00 | 44 | 1020.4 |
| 20260502160703 | 65 | 300 | 1.0 | 8.0 | 0.00 | 0.00 | 0.00 | 45 | 1020.4 |
| 20260502160603 | 65 | 297 | 1.0 | 8.0 | 0.00 | 0.00 | 0.00 | 45 | 1020.4 |
| 20260502160503 | 65 | 299 | 1.0 | 8.0 | 0.00 | 0.00 | 0.00 | 45 | 1020.5 |
| 20260502160403 | 65 | 300 | 2.0 | 8.0 | 0.00 | 0.00 | 0.00 | 45 | 1020.5 |
| 20260502160303 | 65 | 299 | 2.0 | 8.0 | 0.00 | 0.00 | 0.00 | 45 | 1020.5 |
| 20260502160203 | 65 | 298 | 2.0 | 10.0 | 0.00 | 0.00 | 0.00 | 45 | 1020.6 |
| 20260502160104 | 65 | 299 | 2.0 | 10.0 | 0.00 | 0.00 | 0.00 | 45 | 1020.5 |
| 20260502152305 | 65 | 296 | 2.0 | 12.0 | 0.00 | 0.00 | 0.00 | 39 | 1020.5 |
| 20260502152203 | 65 | 296 | 2.0 | 10.0 | 0.00 | 0.00 | 0.00 | 39 | 1020.5 |
| 20260502152103 | 65 | 294 | 2.0 | 10.0 | 0.00 | 0.00 | 0.00 | 39 | 1020.4 |
| 20260502152003 | 66 | 292 | 2.0 | 8.0 | 0.00 | 0.00 | 0.00 | 39 | 1020.3 |
| 20260502151903 | 65 | 291 | 2.0 | 8.0 | 0.00 | 0.00 | 0.00 | 39 | 1020.3 |
| 20260502151803 | 66 | 292 | 2.0 | 8.0 | 0.00 | 0.00 | 0.00 | 39 | 1020.4 |
| 20260502151703 | 66 | 291 | 2.0 | 8.0 | 0.00 | 0.00 | 0.00 | 39 | 1020.4 |
| 20260502151603 | 66 | 290 | 2.0 | 8.0 | 0.00 | 0.00 | 0.00 | 39 | 1020.3 |
| 20260502151503 | 66 | 290 | 2.0 | 8.0 | 0.00 | 0.00 | 0.00 | 39 | 1020.4 |
| 20260502151403 | 66 | 291 | 2.0 | 8.0 | 0.00 | 0.00 | 0.00 | 39 | 1020.5 |
| 20260502151303 | 66 | 292 | 3.0 | 8.0 | 0.00 | 0.00 | 0.00 | 39 | 1020.4 |
| 20260502151203 | 66 | 291 | 2.0 | 8.0 | 0.00 | 0.00 | 0.00 | 39 | 1020.5 |
| 20260502151103 | 66 | 292 | 2.0 | 7.0 | 0.00 | 0.00 | 0.00 | 39 | 1020.5 |
| 20260502151003 | 66 | 293 | 2.0 | 7.0 | 0.00 | 0.00 | 0.00 | 39 | 1020.4 |
| 20260502150903 | 66 | 295 | 2.0 | 7.0 | 0.00 | 0.00 | 0.00 | 39 | 1020.4 |
| 20260502150803 | 66 | 294 | 2.0 | 7.0 | 0.00 | 0.00 | 0.00 | 39 | 1020.4 |
| 20260502150703 | 66 | 296 | 2.0 | 7.0 | 0.00 | 0.00 | 0.00 | 39 | 1020.4 |
| 20260502150603 | 66 | 296 | 3.0 | 7.0 | 0.00 | 0.00 | 0.00 | 39 | 1020.5 |
| 20260502150503 | 66 | 297 | 3.0 | 7.0 | 0.00 | 0.00 | 0.00 | 39 | 1020.5 |
| 20260502150403 | 66 | 296 | 2.0 | 7.0 | 0.00 | 0.00 | 0.00 | 39 | 1020.6 |
| 20260502150303 | 66 | 297 | 2.0 | 7.0 | 0.00 | 0.00 | 0.00 | 39 | 1020.5 |
| 20260502150203 | 66 | 299 | 2.0 | 6.0 | 0.00 | 0.00 | 0.00 | 39 | 1020.4 |
| 20260502150103 | 66 | 301 | 2.0 | 6.0 | 0.00 | 0.00 | 0.00 | 38 | 1020.4 |
| 20260502140104 | 66 | 297 | 3.0 | 12.0 | 0.00 | 0.00 | 0.00 | 39 | 1020.7 |
| 20260502130703 | 66 | 301 | 4.0 | 12.0 | 0.00 | 0.00 | 0.00 | 36 | 1021.1 |
| 20260502130603 | 66 | 299 | 4.0 | 12.0 | 0.00 | 0.00 | 0.00 | 35 | 1021.1 |
| 20260502130503 | 66 | 298 | 4.0 | 12.0 | 0.00 | 0.00 | 0.00 | 35 | 1021.1 |
| 20260502130403 | 66 | 298 | 4.0 | 12.0 | 0.00 | 0.00 | 0.00 | 35 | 1021.1 |
| 20260502130303 | 66 | 297 | 3.0 | 12.0 | 0.00 | 0.00 | 0.00 | 36 | 1021.1 |
| 20260502130203 | 66 | 295 | 3.0 | 11.0 | 0.00 | 0.00 | 0.00 | 36 | 1021.1 |
| 20260502130103 | 66 | 295 | 3.0 | 11.0 | 0.00 | 0.00 | 0.00 | 36 | 1021.2 |
| 20260502123803 | 66 | 296 | 3.0 | 11.0 | 0.00 | 0.00 | 0.00 | 37 | 1021.1 |
| 20260502123703 | 66 | 296 | 3.0 | 11.0 | 0.00 | 0.00 | 0.00 | 37 | 1021.1 |
| 20260502123603 | 66 | 298 | 3.0 | 11.0 | 0.00 | 0.00 | 0.00 | 37 | 1021.1 |
| 20260502123503 | 66 | 298 | 3.0 | 11.0 | 0.00 | 0.00 | 0.00 | 37 | 1021.1 |
| 20260502123403 | 65 | 297 | 4.0 | 11.0 | 0.00 | 0.00 | 0.00 | 37 | 1021.1 |
| 20260502123303 | 65 | 296 | 4.0 | 11.0 | 0.00 | 0.00 | 0.00 | 37 | 1021.1 |
| 20260502123203 | 66 | 296 | 4.0 | 11.0 | 0.00 | 0.00 | 0.00 | 37 | 1021.1 |
| 20260502123103 | 66 | 294 | 4.0 | 11.0 | 0.00 | 0.00 | 0.00 | 37 | 1021.1 |
| 20260502123003 | 66 | 295 | 4.0 | 11.0 | 0.00 | 0.00 | 0.00 | 37 | 1021.0 |
| 20260502122903 | 66 | 293 | 4.0 | 11.0 | 0.00 | 0.00 | 0.00 | 37 | 1021.1 |
| 20260502122803 | 66 | 294 | 4.0 | 11.0 | 0.00 | 0.00 | 0.00 | 37 | 1021.1 |
| 20260502122703 | 66 | 293 | 3.0 | 10.0 | 0.00 | 0.00 | 0.00 | 37 | 1021.1 |
| 20260502122603 | 66 | 291 | 3.0 | 10.0 | 0.00 | 0.00 | 0.00 | 38 | 1021.1 |
| 20260502122503 | 66 | 292 | 3.0 | 10.0 | 0.00 | 0.00 | 0.00 | 38 | 1021.1 |
| 20260502122403 | 66 | 291 | 3.0 | 10.0 | 0.00 | 0.00 | 0.00 | 38 | 1021.1 |
| 20260502122305 | 66 | 294 | 3.0 | 11.0 | 0.00 | 0.00 | 0.00 | 37 | 1021.1 |
| 20260502122203 | 66 | 296 | 4.0 | 13.0 | 0.00 | 0.00 | 0.00 | 37 | 1021.1 |
| 20260502122103 | 66 | 297 | 3.0 | 13.0 | 0.00 | 0.00 | 0.00 | 37 | 1021.1 |
| 20260502122003 | 66 | 298 | 4.0 | 13.0 | 0.00 | 0.00 | 0.00 | 38 | 1021.1 |
| 20260502121903 | 66 | 299 | 4.0 | 13.0 | 0.00 | 0.00 | 0.00 | 38 | 1021.1 |
| 20260502121803 | 66 | 297 | 4.0 | 13.0 | 0.00 | 0.00 | 0.00 | 38 | 1021.0 |
| 20260502121703 | 65 | 300 | 4.0 | 13.0 | 0.00 | 0.00 | 0.00 | 38 | 1021.1 |
| 20260502121603 | 65 | 300 | 4.0 | 13.0 | 0.00 | 0.00 | 0.00 | 38 | 1021.0 |
| 20260502121503 | 65 | 299 | 4.0 | 13.0 | 0.00 | 0.00 | 0.00 | 37 | 1021.1 |
| 20260502121404 | 65 | 298 | 4.0 | 13.0 | 0.00 | 0.00 | 0.00 | 37 | 1021.1 |
| 20260502121304 | 66 | 296 | 4.0 | 13.0 | 0.00 | 0.00 | 0.00 | 37 | 1021.1 |
| 20260502121204 | 65 | 296 | 4.0 | 13.0 | 0.00 | 0.00 | 0.00 | 37 | 1021.1 |
| 20260502121104 | 65 | 297 | 4.0 | 11.0 | 0.00 | 0.00 | 0.00 | 37 | 1021.0 |
| 20260502121004 | 65 | 297 | 4.0 | 11.0 | 0.00 | 0.00 | 0.00 | 37 | 1021.0 |
| 20260502120904 | 65 | 298 | 4.0 | 11.0 | 0.00 | 0.00 | 0.00 | 37 | 1021.1 |
| 20260502120804 | 65 | 299 | 4.0 | 10.0 | 0.00 | 0.00 | 0.00 | 38 | 1021.1 |
| 20260502120704 | 65 | 298 | 4.0 | 10.0 | 0.00 | 0.00 | 0.00 | 38 | 1021.1 |
| 20260502120604 | 65 | 299 | 4.0 | 10.0 | 0.00 | 0.00 | 0.00 | 37 | 1021.1 |
| 20260502120504 | 66 | 299 | 4.0 | 10.0 | 0.00 | 0.00 | 0.00 | 37 | 1021.1 |
| 20260502120404 | 65 | 300 | 5.0 | 10.0 | 0.00 | 0.00 | 0.00 | 37 | 1021.1 |
| 20260502120304 | 66 | 303 | 5.0 | 10.0 | 0.00 | 0.00 | 0.00 | 36 | 1021.1 |
| 20260502120204 | 65 | 303 | 5.0 | 10.0 | 0.00 | 0.00 | 0.00 | 37 | 1021.1 |
| 20260502120104 | 65 | 302 | 4.0 | 10.0 | 0.00 | 0.00 | 0.00 | 37 | 1021.1 |
| 20260502115904 | 66 | 302 | 4.0 | 11.0 | 0.00 | 0.00 | 0.00 | 37 | 1021.2 |
| 20260502115804 | 66 | 302 | 4.0 | 11.0 | 0.00 | 0.00 | 0.00 | 37 | 1021.1 |
| 20260502115704 | 66 | 302 | 4.0 | 11.0 | 0.00 | 0.00 | 0.00 | 37 | 1021.1 |
| 20260502115604 | 66 | 302 | 4.0 | 11.0 | 0.00 | 0.00 | 0.00 | 37 | 1021.1 |
| 20260502115504 | 66 | 303 | 3.0 | 11.0 | 0.00 | 0.00 | 0.00 | 37 | 1021.1 |
| 20260502115404 | 66 | 304 | 3.0 | 11.0 | 0.00 | 0.00 | 0.00 | 37 | 1021.1 |
| 20260502115306 | 66 | 304 | 3.0 | 11.0 | 0.00 | 0.00 | 0.00 | 38 | 1021.1 |
| 20260502115204 | 66 | 304 | 3.0 | 11.0 | 0.00 | 0.00 | 0.00 | 38 | 1021.0 |
| 20260502115104 | 66 | 303 | 2.0 | 11.0 | 0.00 | 0.00 | 0.00 | 38 | 1021.0 |
| 20260502115004 | 66 | 305 | 3.0 | 11.0 | 0.00 | 0.00 | 0.00 | 38 | 1021.1 |
| 20260502114904 | 66 | 305 | 3.0 | 11.0 | 0.00 | 0.00 | 0.00 | 38 | 1021.1 |
| 20260502114804 | 66 | 306 | 3.0 | 11.0 | 0.00 | 0.00 | 0.00 | 38 | 1021.0 |
| 20260502114704 | 66 | 303 | 3.0 | 11.0 | 0.00 | 0.00 | 0.00 | 38 | 1021.0 |
| 20260502114604 | 66 | 303 | 3.0 | 11.0 | 0.00 | 0.00 | 0.00 | 38 | 1021.1 |
| 20260502114504 | 66 | 302 | 3.0 | 11.0 | 0.00 | 0.00 | 0.00 | 38 | 1021.1 |
| 20260502114404 | 65 | 300 | 4.0 | 11.0 | 0.00 | 0.00 | 0.00 | 38 | 1021.0 |
| 20260502114204 | 65 | 299 | 4.0 | 12.0 | 0.00 | 0.00 | 0.00 | 38 | 1021.1 |
| 20260502114104 | 65 | 299 | 4.0 | 12.0 | 0.00 | 0.00 | 0.00 | 38 | 1021.1 |
| 20260502114008 | 65 | 296 | 3.0 | 12.0 | 0.00 | 0.00 | 0.00 | 38 | 1021.1 |
| 20260502113904 | 65 | 295 | 3.0 | 12.0 | 0.00 | 0.00 | 0.00 | 38 | 1021.1 |
| 20260502113804 | 65 | 293 | 4.0 | 12.0 | 0.00 | 0.00 | 0.00 | 38 | 1021.1 |
| 20260502113704 | 65 | 294 | 4.0 | 12.0 | 0.00 | 0.00 | 0.00 | 38 | 1021.0 |
| 20260502113603 | 65 | 295 | 4.0 | 12.0 | 0.00 | 0.00 | 0.00 | 37 | 1021.0 |
| 20260502113503 | 65 | 293 | 4.0 | 12.0 | 0.00 | 0.00 | 0.00 | 38 | 1021.1 |
| 20260502113404 | 65 | 292 | 3.0 | 12.0 | 0.00 | 0.00 | 0.00 | 38 | 1021.1 |
| 20260502113303 | 65 | 292 | 3.0 | 12.0 | 0.00 | 0.00 | 0.00 | 38 | 1021.1 |
| 20260502113203 | 65 | 292 | 3.0 | 12.0 | 0.00 | 0.00 | 0.00 | 38 | 1021.0 |
| 20260502113104 | 65 | 293 | 4.0 | 12.0 | 0.00 | 0.00 | 0.00 | 38 | 1021.1 |
| 20260502113004 | 65 | 293 | 3.0 | 12.0 | 0.00 | 0.00 | 0.00 | 38 | 1021.0 |
| 20260502112903 | 65 | 297 | 4.0 | 12.0 | 0.00 | 0.00 | 0.00 | 38 | 1021.0 |
| 20260502112803 | 65 | 297 | 3.0 | 12.0 | 0.00 | 0.00 | 0.00 | 38 | 1021.0 |
| 20260502112703 | 65 | 297 | 3.0 | 12.0 | 0.00 | 0.00 | 0.00 | 38 | 1021.0 |
| 20260502112603 | 65 | 297 | 3.0 | 12.0 | 0.00 | 0.00 | 0.00 | 38 | 1021.1 |
| 20260502112504 | 65 | 297 | 4.0 | 12.0 | 0.00 | 0.00 | 0.00 | 38 | 1021.0 |
| 20260502112403 | 65 | 298 | 4.0 | 12.0 | 0.00 | 0.00 | 0.00 | 38 | 1021.1 |
| 20260502112305 | 65 | 297 | 4.0 | 12.0 | 0.00 | 0.00 | 0.00 | 38 | 1021.0 |
| 20260502112203 | 65 | 298 | 4.0 | 12.0 | 0.00 | 0.00 | 0.00 | 37 | 1021.1 |
| 20260502112103 | 65 | 298 | 5.0 | 13.0 | 0.00 | 0.00 | 0.00 | 37 | 1021.0 |
| 20260502112003 | 65 | 299 | 5.0 | 13.0 | 0.00 | 0.00 | 0.00 | 38 | 1021.1 |
| 20260502111903 | 65 | 297 | 5.0 | 13.0 | 0.00 | 0.00 | 0.00 | 38 | 1021.1 |
| 20260502111803 | 65 | 298 | 5.0 | 13.0 | 0.00 | 0.00 | 0.00 | 38 | 1021.1 |
| 20260502111703 | 65 | 297 | 5.0 | 13.0 | 0.00 | 0.00 | 0.00 | 38 | 1021.0 |
| 20260502111603 | 65 | 297 | 5.0 | 13.0 | 0.00 | 0.00 | 0.00 | 38 | 1021.1 |
| 20260502111503 | 66 | 298 | 4.0 | 13.0 | 0.00 | 0.00 | 0.00 | 38 | 1021.1 |
| 20260502111403 | 66 | 298 | 4.0 | 13.0 | 0.00 | 0.00 | 0.00 | 38 | 1021.1 |
| 20260502111303 | 65 | 299 | 4.0 | 13.0 | 0.00 | 0.00 | 0.00 | 39 | 1021.1 |
| 20260502111203 | 66 | 298 | 3.0 | 13.0 | 0.00 | 0.00 | 0.00 | 39 | 1021.1 |
| 20260502111103 | 65 | 298 | 3.0 | 12.0 | 0.00 | 0.00 | 0.00 | 39 | 1021.0 |
| 20260502111003 | 65 | 298 | 3.0 | 12.0 | 0.00 | 0.00 | 0.00 | 39 | 1021.0 |
| 20260502110903 | 65 | 296 | 3.0 | 12.0 | 0.00 | 0.00 | 0.00 | 39 | 1021.1 |
| 20260502110803 | 65 | 295 | 3.0 | 12.0 | 0.00 | 0.00 | 0.00 | 39 | 1021.0 |
| 20260502110703 | 65 | 296 | 3.0 | 10.0 | 0.00 | 0.00 | 0.00 | 38 | 1021.0 |
| 20260502110603 | 65 | 295 | 3.0 | 10.0 | 0.00 | 0.00 | 0.00 | 38 | 1021.0 |
| 20260502110503 | 65 | 296 | 3.0 | 10.0 | 0.00 | 0.00 | 0.00 | 38 | 1021.0 |
| 20260502110403 | 65 | 294 | 3.0 | 10.0 | 0.00 | 0.00 | 0.00 | 38 | 1021.1 |
| 20260502110303 | 65 | 293 | 4.0 | 13.0 | 0.00 | 0.00 | 0.00 | 38 | 1021.0 |
| 20260502110203 | 65 | 294 | 4.0 | 13.0 | 0.00 | 0.00 | 0.00 | 37 | 1021.1 |
| 20260502110103 | 65 | 294 | 5.0 | 13.0 | 0.00 | 0.00 | 0.00 | 38 | 1021.1 |
| 20260502110004 | 65 | 294 | 5.0 | 13.0 | 0.00 | 0.00 | 0.00 | 38 | 1021.1 |
| 20260502105903 | 65 | 294 | 5.0 | 13.0 | 0.00 | 0.00 | 0.00 | 38 | 1021.1 |
| 20260502105803 | 65 | 295 | 5.0 | 13.0 | 0.00 | 0.00 | 0.00 | 38 | 1021.0 |
| 20260502105703 | 65 | 295 | 5.0 | 13.0 | 0.00 | 0.00 | 0.00 | 38 | 1021.0 |
| 20260502105603 | 65 | 295 | 6.0 | 13.0 | 0.00 | 0.00 | 0.00 | 38 | 1021.1 |
| 20260502105503 | 65 | 295 | 5.0 | 13.0 | 0.00 | 0.00 | 0.00 | 37 | 1021.0 |
| 20260502105403 | 65 | 296 | 5.0 | 13.0 | 0.00 | 0.00 | 0.00 | 37 | 1021.0 |
| 20260502105306 | 65 | 296 | 5.0 | 12.0 | 0.00 | 0.00 | 0.00 | 37 | 1021.0 |
| 20260502105203 | 65 | 296 | 5.0 | 12.0 | 0.00 | 0.00 | 0.00 | 38 | 1021.0 |
| 20260502105103 | 65 | 295 | 4.0 | 12.0 | 0.00 | 0.00 | 0.00 | 38 | 1020.9 |
| 20260502105003 | 65 | 294 | 4.0 | 12.0 | 0.00 | 0.00 | 0.00 | 38 | 1021.0 |
| 20260502104903 | 65 | 296 | 4.0 | 10.0 | 0.00 | 0.00 | 0.00 | 37 | 1021.0 |
| 20260502104803 | 65 | 298 | 4.0 | 10.0 | 0.00 | 0.00 | 0.00 | 37 | 1021.0 |
| 20260502104703 | 65 | 298 | 4.0 | 12.0 | 0.00 | 0.00 | 0.00 | 37 | 1021.0 |
| 20260502104603 | 65 | 300 | 4.0 | 12.0 | 0.00 | 0.00 | 0.00 | 37 | 1021.1 |
| 20260502104503 | 65 | 299 | 4.0 | 12.0 | 0.00 | 0.00 | 0.00 | 37 | 1020.9 |
| 20260502104404 | 65 | 298 | 4.0 | 12.0 | 0.00 | 0.00 | 0.00 | 37 | 1021.0 |
| 20260502104303 | 65 | 297 | 5.0 | 12.0 | 0.00 | 0.00 | 0.00 | 38 | 1021.0 |
| 20260502104203 | 65 | 297 | 5.0 | 12.0 | 0.00 | 0.00 | 0.00 | 38 | 1021.0 |
| 20260502104103 | 65 | 297 | 5.0 | 12.0 | 0.00 | 0.00 | 0.00 | 38 | 1021.0 |
| 20260502104003 | 65 | 295 | 5.0 | 12.0 | 0.00 | 0.00 | 0.00 | 38 | 1021.1 |
| 20260502103903 | 65 | 293 | 5.0 | 13.0 | 0.00 | 0.00 | 0.00 | 38 | 1021.2 |
| 20260502103803 | 65 | 293 | 6.0 | 13.0 | 0.00 | 0.00 | 0.00 | 38 | 1021.1 |
| 20260502103703 | 65 | 292 | 5.0 | 13.0 | 0.00 | 0.00 | 0.00 | 38 | 1021.1 |
| 20260502103603 | 65 | 291 | 5.0 | 13.0 | 0.00 | 0.00 | 0.00 | 38 | 1021.1 |
| 20260502103503 | 65 | 292 | 5.0 | 13.0 | 0.00 | 0.00 | 0.00 | 38 | 1021.1 |
| 20260502103403 | 64 | 293 | 5.0 | 13.0 | 0.00 | 0.00 | 0.00 | 38 | 1021.1 |
| 20260502103303 | 64 | 293 | 5.0 | 13.0 | 0.00 | 0.00 | 0.00 | 37 | 1021.1 |
| 20260502103203 | 65 | 294 | 5.0 | 13.0 | 0.00 | 0.00 | 0.00 | 37 | 1021.3 |
| 20260502103103 | 65 | 295 | 5.0 | 13.0 | 0.00 | 0.00 | 0.00 | 37 | 1021.3 |
| 20260502103003 | 65 | 296 | 5.0 | 13.0 | 0.00 | 0.00 | 0.00 | 37 | 1021.3 |
| 20260502102903 | 65 | 297 | 5.0 | 13.0 | 0.00 | 0.00 | 0.00 | 37 | 1021.2 |
| 20260502102803 | 65 | 297 | 5.0 | 12.0 | 0.00 | 0.00 | 0.00 | 37 | 1021.2 |
| 20260502102703 | 65 | 298 | 4.0 | 12.0 | 0.00 | 0.00 | 0.00 | 37 | 1021.2 |
| 20260502102603 | 65 | 298 | 4.0 | 12.0 | 0.00 | 0.00 | 0.00 | 37 | 1021.2 |
| 20260502102503 | 65 | 297 | 4.0 | 12.0 | 0.00 | 0.00 | 0.00 | 37 | 1021.2 |
| 20260502102403 | 65 | 298 | 4.0 | 12.0 | 0.00 | 0.00 | 0.00 | 37 | 1021.3 |
| 20260502102306 | 65 | 297 | 4.0 | 12.0 | 0.00 | 0.00 | 0.00 | 37 | 1021.4 |
| 20260502102203 | 65 | 299 | 4.0 | 11.0 | 0.00 | 0.00 | 0.00 | 37 | 1021.2 |
| 20260502102103 | 65 | 297 | 4.0 | 11.0 | 0.00 | 0.00 | 0.00 | 37 | 1021.3 |
| 20260502102003 | 65 | 299 | 4.0 | 13.0 | 0.00 | 0.00 | 0.00 | 37 | 1021.3 |
| 20260502101903 | 65 | 299 | 4.0 | 13.0 | 0.00 | 0.00 | 0.00 | 36 | 1021.2 |
| 20260502101803 | 65 | 300 | 4.0 | 13.0 | 0.00 | 0.00 | 0.00 | 36 | 1021.2 |
| 20260502101703 | 65 | 299 | 5.0 | 14.0 | 0.00 | 0.00 | 0.00 | 36 | 1021.2 |
| 20260502101603 | 65 | 300 | 5.0 | 14.0 | 0.00 | 0.00 | 0.00 | 36 | 1021.2 |
| 20260502101503 | 65 | 300 | 5.0 | 14.0 | 0.00 | 0.00 | 0.00 | 36 | 1021.3 |
| 20260502101403 | 65 | 299 | 5.0 | 14.0 | 0.00 | 0.00 | 0.00 | 36 | 1021.3 |
| 20260502101303 | 65 | 301 | 5.0 | 14.0 | 0.00 | 0.00 | 0.00 | 36 | 1021.2 |
| 20260502101203 | 65 | 299 | 4.0 | 14.0 | 0.00 | 0.00 | 0.00 | 36 | 1021.4 |
| 20260502101103 | 65 | 299 | 4.0 | 14.0 | 0.00 | 0.00 | 0.00 | 36 | 1021.4 |
| 20260502101003 | 65 | 298 | 4.0 | 14.0 | 0.00 | 0.00 | 0.00 | 36 | 1021.4 |
| 20260502100903 | 65 | 298 | 4.0 | 14.0 | 0.00 | 0.00 | 0.00 | 36 | 1021.5 |
| 20260502100803 | 65 | 296 | 4.0 | 14.0 | 0.00 | 0.00 | 0.00 | 36 | 1021.3 |
| 20260502100703 | 65 | 296 | 4.0 | 14.0 | 0.00 | 0.00 | 0.00 | 36 | 1021.3 |
| 20260502100604 | 65 | 295 | 4.0 | 14.0 | 0.00 | 0.00 | 0.00 | 37 | 1021.3 |
| 20260502100504 | 65 | 294 | 3.0 | 14.0 | 0.00 | 0.00 | 0.00 | 37 | 1021.2 |
| 20260502100404 | 65 | 293 | 3.0 | 14.0 | 0.00 | 0.00 | 0.00 | 37 | 1021.2 |
| 20260502100304 | 65 | 292 | 3.0 | 14.0 | 0.00 | 0.00 | 0.00 | 36 | 1021.2 |
| 20260502100204 | 65 | 291 | 4.0 | 14.0 | 0.00 | 0.00 | 0.00 | 36 | 1021.3 |
| 20260502100104 | 65 | 293 | 4.0 | 14.0 | 0.00 | 0.00 | 0.00 | 37 | 1021.2 |
| 20260502091504 | 64 | 297 | 7.0 | 14.0 | 0.00 | 0.00 | 0.00 | 38 | 1021.5 |
| 20260502091403 | 64 | 297 | 7.0 | 14.0 | 0.00 | 0.00 | 0.00 | 38 | 1021.4 |
| 20260502091303 | 64 | 296 | 7.0 | 16.0 | 0.00 | 0.00 | 0.00 | 38 | 1021.5 |
| 20260502091203 | 64 | 297 | 7.0 | 17.0 | 0.00 | 0.00 | 0.00 | 39 | 1021.4 |
| 20260502091103 | 64 | 297 | 7.0 | 17.0 | 0.00 | 0.00 | 0.00 | 39 | 1021.3 |
| 20260502091003 | 64 | 296 | 7.0 | 17.0 | 0.00 | 0.00 | 0.00 | 39 | 1021.3 |
| 20260502090903 | 64 | 297 | 7.0 | 17.0 | 0.00 | 0.00 | 0.00 | 39 | 1021.4 |
| 20260502090803 | 64 | 298 | 7.0 | 17.0 | 0.00 | 0.00 | 0.00 | 39 | 1021.3 |
| 20260502090703 | 64 | 297 | 7.0 | 17.0 | 0.00 | 0.00 | 0.00 | 39 | 1021.3 |
| 20260502090603 | 64 | 297 | 7.0 | 17.0 | 0.00 | 0.00 | 0.00 | 39 | 1021.3 |
| 20260502090504 | 65 | 297 | 7.0 | 17.0 | 0.00 | 0.00 | 0.00 | 38 | 1021.4 |
| 20260502090403 | 65 | 297 | 6.0 | 17.0 | 0.00 | 0.00 | 0.00 | 39 | 1021.4 |
| 20260502090303 | 65 | 298 | 6.0 | 17.0 | 0.00 | 0.00 | 0.00 | 40 | 1021.4 |
| 20260502090203 | 65 | 297 | 5.0 | 13.0 | 0.00 | 0.00 | 0.00 | 40 | 1021.3 |
| 20260502090103 | 65 | 298 | 5.0 | 14.0 | 0.00 | 0.00 | 0.00 | 40 | 1021.2 |
| 20260502080103 | 64 | 297 | 7.0 | 17.0 | 0.00 | 0.00 | 0.00 | 41 | 1021.3 |
| 20260502071504 | 65 | 296 | 5.0 | 13.0 | 0.00 | 0.00 | 0.00 | 49 | 1021.2 |
| 20260502071404 | 64 | 295 | 5.0 | 13.0 | 0.00 | 0.00 | 0.00 | 49 | 1021.2 |
| 20260502071304 | 64 | 294 | 5.0 | 13.0 | 0.00 | 0.00 | 0.00 | 49 | 1021.3 |
| 20260502071204 | 64 | 292 | 6.0 | 13.0 | 0.00 | 0.00 | 0.00 | 49 | 1021.2 |
| 20260502071104 | 64 | 293 | 6.0 | 13.0 | 0.00 | 0.00 | 0.00 | 49 | 1021.2 |
| 20260502071004 | 64 | 293 | 5.0 | 13.0 | 0.00 | 0.00 | 0.00 | 49 | 1021.1 |
| 20260502070904 | 64 | 295 | 5.0 | 11.0 | 0.00 | 0.00 | 0.00 | 49 | 1021.1 |
| 20260502070804 | 64 | 296 | 5.0 | 11.0 | 0.00 | 0.00 | 0.00 | 49 | 1021.1 |
| 20260502070704 | 64 | 297 | 5.0 | 11.0 | 0.00 | 0.00 | 0.00 | 49 | 1021.1 |
| 20260502070604 | 64 | 297 | 5.0 | 11.0 | 0.00 | 0.00 | 0.00 | 48 | 1021.1 |
| 20260502070503 | 64 | 297 | 5.0 | 11.0 | 0.00 | 0.00 | 0.00 | 48 | 1021.1 |
| 20260502070404 | 65 | 297 | 5.0 | 11.0 | 0.00 | 0.00 | 0.00 | 48 | 1021.2 |
| 20260502070304 | 65 | 299 | 5.0 | 11.0 | 0.00 | 0.00 | 0.00 | 48 | 1021.2 |
| 20260502070204 | 65 | 300 | 5.0 | 11.0 | 0.00 | 0.00 | 0.00 | 48 | 1021.2 |
| 20260502070104 | 65 | 299 | 5.0 | 10.0 | 0.00 | 0.00 | 0.00 | 48 | 1021.2 |
| 20260502070004 | 65 | 298 | 5.0 | 10.0 | 0.00 | 0.00 | 0.00 | 48 | 1021.2 |
| 20260502065904 | 65 | 298 | 5.0 | 10.0 | 0.00 | 0.00 | 0.00 | 48 | 1021.3 |
| 20260502065803 | 65 | 298 | 5.0 | 10.0 | 0.00 | 0.00 | 0.00 | 48 | 1021.2 |
| 20260502065703 | 65 | 296 | 5.0 | 10.0 | 0.00 | 0.00 | 0.00 | 48 | 1021.1 |
| 20260502065603 | 65 | 295 | 5.0 | 10.0 | 0.00 | 0.00 | 0.00 | 48 | 1021.1 |
| 20260502065503 | 65 | 295 | 5.0 | 10.0 | 0.00 | 0.00 | 0.00 | 48 | 1021.2 |
| 20260502065404 | 65 | 293 | 4.0 | 9.0 | 0.00 | 0.00 | 0.00 | 48 | 1021.1 |
| 20260502065306 | 65 | 293 | 4.0 | 9.0 | 0.00 | 0.00 | 0.00 | 48 | 1021.1 |
| 20260502065204 | 65 | 293 | 4.0 | 9.0 | 0.00 | 0.00 | 0.00 | 48 | 1021.1 |
| 20260502065103 | 65 | 295 | 4.0 | 9.0 | 0.00 | 0.00 | 0.00 | 48 | 1021.1 |
| 20260502065003 | 65 | 296 | 4.0 | 8.0 | 0.00 | 0.00 | 0.00 | 48 | 1021.1 |
| 20260502064904 | 65 | 296 | 4.0 | 8.0 | 0.00 | 0.00 | 0.00 | 48 | 1021.2 |
| 20260502064804 | 65 | 296 | 4.0 | 9.0 | 0.00 | 0.00 | 0.00 | 48 | 1021.1 |
| 20260502064703 | 65 | 297 | 4.0 | 9.0 | 0.00 | 0.00 | 0.00 | 48 | 1021.2 |
| 20260502064603 | 65 | 299 | 4.0 | 9.0 | 0.00 | 0.00 | 0.00 | 48 | 1021.1 |
| 20260502064504 | 65 | 299 | 3.0 | 9.0 | 0.00 | 0.00 | 0.00 | 48 | 1021.1 |
| 20260502064303 | 65 | 302 | 3.0 | 9.0 | 0.00 | 0.00 | 0.00 | 48 | 1021.2 |
| 20260502064203 | 65 | 303 | 3.0 | 9.0 | 0.00 | 0.00 | 0.00 | 48 | 1021.2 |
| 20260502064103 | 65 | 300 | 4.0 | 10.0 | 0.00 | 0.00 | 0.00 | 47 | 1021.1 |
| 20260502064003 | 65 | 300 | 4.0 | 10.0 | 0.00 | 0.00 | 0.00 | 47 | 1021.1 |
| 20260502063903 | 65 | 299 | 4.0 | 10.0 | 0.00 | 0.00 | 0.00 | 47 | 1021.1 |
| 20260502063803 | 65 | 297 | 4.0 | 10.0 | 0.00 | 0.00 | 0.00 | 48 | 1021.1 |
| 20260502063703 | 65 | 297 | 4.0 | 10.0 | 0.00 | 0.00 | 0.00 | 48 | 1021.1 |
| 20260502063603 | 65 | 295 | 4.0 | 10.0 | 0.00 | 0.00 | 0.00 | 48 | 1021.1 |
| 20260502063503 | 65 | 295 | 5.0 | 10.0 | 0.00 | 0.00 | 0.00 | 47 | 1021.0 |
| 20260502063403 | 65 | 295 | 5.0 | 10.0 | 0.00 | 0.00 | 0.00 | 47 | 1021.1 |
| 20260502063303 | 65 | 294 | 5.0 | 10.0 | 0.00 | 0.00 | 0.00 | 47 | 1021.1 |
| 20260502063203 | 65 | 294 | 5.0 | 10.0 | 0.00 | 0.00 | 0.00 | 47 | 1021.1 |
| 20260502063103 | 65 | 294 | 4.0 | 11.0 | 0.00 | 0.00 | 0.00 | 47 | 1021.1 |
| 20260502063003 | 65 | 295 | 4.0 | 11.0 | 0.00 | 0.00 | 0.00 | 47 | 1021.1 |
| 20260502062903 | 65 | 294 | 4.0 | 11.0 | 0.00 | 0.00 | 0.00 | 47 | 1021.0 |
| 20260502062803 | 65 | 295 | 4.0 | 11.0 | 0.00 | 0.00 | 0.00 | 47 | 1021.0 |
| 20260502062703 | 65 | 297 | 4.0 | 11.0 | 0.00 | 0.00 | 0.00 | 47 | 1021.1 |
| 20260502062603 | 65 | 299 | 5.0 | 11.0 | 0.00 | 0.00 | 0.00 | 47 | 1021.0 |
| 20260502062503 | 65 | 298 | 5.0 | 11.0 | 0.00 | 0.00 | 0.00 | 47 | 1021.0 |
| 20260502062403 | 65 | 297 | 5.0 | 11.0 | 0.00 | 0.00 | 0.00 | 47 | 1021.1 |
| 20260502062306 | 65 | 298 | 5.0 | 11.0 | 0.00 | 0.00 | 0.00 | 47 | 1021.0 |
| 20260502062203 | 65 | 298 | 5.0 | 11.0 | 0.00 | 0.00 | 0.00 | 46 | 1021.0 |
| 20260502062103 | 65 | 297 | 5.0 | 11.0 | 0.00 | 0.00 | 0.00 | 46 | 1021.1 |
| 20260502062003 | 65 | 296 | 5.0 | 11.0 | 0.00 | 0.00 | 0.00 | 46 | 1021.0 |
| 20260502061903 | 65 | 297 | 5.0 | 11.0 | 0.00 | 0.00 | 0.00 | 46 | 1021.0 |
| 20260502061803 | 65 | 299 | 5.0 | 11.0 | 0.00 | 0.00 | 0.00 | 46 | 1021.0 |
| 20260502061703 | 65 | 295 | 5.0 | 11.0 | 0.00 | 0.00 | 0.00 | 46 | 1021.0 |
| 20260502061603 | 65 | 295 | 5.0 | 11.0 | 0.00 | 0.00 | 0.00 | 46 | 1021.1 |
| 20260502061503 | 65 | 295 | 5.0 | 13.0 | 0.00 | 0.00 | 0.00 | 47 | 1020.9 |
| 20260502061403 | 64 | 297 | 5.0 | 13.0 | 0.00 | 0.00 | 0.00 | 46 | 1020.9 |
| 20260502061303 | 64 | 296 | 5.0 | 13.0 | 0.00 | 0.00 | 0.00 | 46 | 1021.0 |
| 20260502061203 | 64 | 296 | 6.0 | 13.0 | 0.00 | 0.00 | 0.00 | 46 | 1020.9 |
| 20260502061103 | 64 | 296 | 6.0 | 13.0 | 0.00 | 0.00 | 0.00 | 46 | 1021.0 |
| 20260502061003 | 65 | 296 | 6.0 | 13.0 | 0.00 | 0.00 | 0.00 | 46 | 1020.9 |
| 20260502060903 | 65 | 295 | 6.0 | 13.0 | 0.00 | 0.00 | 0.00 | 46 | 1021.0 |
| 20260502060803 | 65 | 294 | 5.0 | 13.0 | 0.00 | 0.00 | 0.00 | 45 | 1021.0 |
| 20260502060703 | 65 | 297 | 5.0 | 13.0 | 0.00 | 0.00 | 0.00 | 45 | 1021.0 |
| 20260502060603 | 65 | 295 | 5.0 | 13.0 | 0.00 | 0.00 | 0.00 | 45 | 1021.0 |
| 20260502060503 | 65 | 295 | 5.0 | 9.0 | 0.00 | 0.00 | 0.00 | 45 | 1021.0 |
| 20260502060403 | 65 | 294 | 4.0 | 9.0 | 0.00 | 0.00 | 0.00 | 45 | 1020.9 |
| 20260502060303 | 65 | 294 | 4.0 | 9.0 | 0.00 | 0.00 | 0.00 | 45 | 1020.9 |
| 20260502060203 | 65 | 295 | 4.0 | 9.0 | 0.00 | 0.00 | 0.00 | 45 | 1020.9 |
| 20260502060003 | 65 | 296 | 4.0 | 9.0 | 0.00 | 0.00 | 0.00 | 44 | 1020.8 |
| 20260502055903 | 65 | 297 | 4.0 | 9.0 | 0.00 | 0.00 | 0.00 | 44 | 1020.8 |
| 20260502055803 | 65 | 297 | 4.0 | 9.0 | 0.00 | 0.00 | 0.00 | 45 | 1020.9 |
| 20260502055703 | 65 | 296 | 3.0 | 7.0 | 0.00 | 0.00 | 0.00 | 45 | 1020.7 |
| 20260502055603 | 65 | 296 | 3.0 | 7.0 | 0.00 | 0.00 | 0.00 | 45 | 1020.8 |
| 20260502055503 | 65 | 297 | 3.0 | 7.0 | 0.00 | 0.00 | 0.00 | 45 | 1020.8 |
| 20260502055403 | 65 | 297 | 3.0 | 8.0 | 0.00 | 0.00 | 0.00 | 45 | 1020.7 |
| 20260502055305 | 65 | 297 | 4.0 | 8.0 | 0.00 | 0.00 | 0.00 | 45 | 1020.7 |
| 20260502055203 | 65 | 298 | 3.0 | 8.0 | 0.00 | 0.00 | 0.00 | 46 | 1020.7 |
| 20260502055103 | 65 | 297 | 4.0 | 8.0 | 0.00 | 0.00 | 0.00 | 46 | 1020.7 |
| 20260502055003 | 65 | 297 | 4.0 | 8.0 | 0.00 | 0.00 | 0.00 | 46 | 1020.6 |
| 20260502054903 | 65 | 297 | 4.0 | 8.0 | 0.00 | 0.00 | 0.00 | 46 | 1020.7 |
| 20260502054803 | 65 | 298 | 4.0 | 8.0 | 0.00 | 0.00 | 0.00 | 46 | 1020.7 |
| 20260502054703 | 65 | 297 | 4.0 | 8.0 | 0.00 | 0.00 | 0.00 | 46 | 1020.7 |
| 20260502054603 | 65 | 297 | 4.0 | 8.0 | 0.00 | 0.00 | 0.00 | 46 | 1020.7 |
| 20260502054503 | 65 | 298 | 4.0 | 8.0 | 0.00 | 0.00 | 0.00 | 46 | 1020.6 |
| 20260502054303 | 64 | 299 | 4.0 | 7.0 | 0.00 | 0.00 | 0.00 | 47 | 1020.5 |
| 20260502054203 | 64 | 297 | 4.0 | 8.0 | 0.00 | 0.00 | 0.00 | 47 | 1020.6 |
| 20260502054103 | 64 | 298 | 4.0 | 8.0 | 0.00 | 0.00 | 0.00 | 47 | 1020.6 |
| 20260502054003 | 64 | 298 | 4.0 | 8.0 | 0.00 | 0.00 | 0.00 | 47 | 1020.6 |
| 20260502053903 | 64 | 298 | 4.0 | 8.0 | 0.00 | 0.00 | 0.00 | 47 | 1020.5 |
| 20260502053803 | 64 | 297 | 4.0 | 8.0 | 0.00 | 0.00 | 0.00 | 48 | 1020.5 |
| 20260502053703 | 64 | 297 | 4.0 | 8.0 | 0.00 | 0.00 | 0.00 | 47 | 1020.4 |
| 20260502053603 | 64 | 297 | 5.0 | 8.0 | 0.00 | 0.00 | 0.00 | 48 | 1020.4 |
| 20260502053503 | 64 | 296 | 4.0 | 8.0 | 0.00 | 0.00 | 0.00 | 48 | 1020.4 |
| 20260502053404 | 63 | 295 | 4.0 | 8.0 | 0.00 | 0.00 | 0.00 | 48 | 1020.4 |
| 20260502053303 | 63 | 295 | 4.0 | 8.0 | 0.00 | 0.00 | 0.00 | 48 | 1020.4 |
| 20260502053203 | 63 | 297 | 4.0 | 7.0 | 0.00 | 0.00 | 0.00 | 48 | 1020.4 |
| 20260502053103 | 63 | 296 | 3.0 | 7.0 | 0.00 | 0.00 | 0.00 | 49 | 1020.4 |
| 20260502053003 | 63 | 296 | 3.0 | 7.0 | 0.00 | 0.00 | 0.00 | 49 | 1020.4 |
| 20260502052903 | 63 | 295 | 3.0 | 7.0 | 0.00 | 0.00 | 0.00 | 49 | 1020.4 |
| 20260502052803 | 63 | 295 | 3.0 | 7.0 | 0.00 | 0.00 | 0.00 | 49 | 1020.3 |
| 20260502052703 | 62 | 295 | 3.0 | 7.0 | 0.00 | 0.00 | 0.00 | 49 | 1020.4 |
| 20260502052603 | 62 | 295 | 3.0 | 6.0 | 0.00 | 0.00 | 0.00 | 49 | 1020.4 |
| 20260502052503 | 62 | 295 | 3.0 | 6.0 | 0.00 | 0.00 | 0.00 | 49 | 1020.3 |
| 20260502052403 | 62 | 296 | 3.0 | 7.0 | 0.00 | 0.00 | 0.00 | 49 | 1020.4 |
| 20260502052306 | 62 | 295 | 3.0 | 7.0 | 0.00 | 0.00 | 0.00 | 49 | 1020.5 |
| 20260502052203 | 61 | 296 | 4.0 | 7.0 | 0.00 | 0.00 | 0.00 | 50 | 1020.4 |
| 20260502052103 | 61 | 296 | 4.0 | 7.0 | 0.00 | 0.00 | 0.00 | 50 | 1020.5 |
| 20260502052003 | 61 | 297 | 4.0 | 10.0 | 0.00 | 0.00 | 0.00 | 50 | 1020.6 |
| 20260502051903 | 61 | 297 | 4.0 | 10.0 | 0.00 | 0.00 | 0.00 | 50 | 1020.7 |
| 20260502051803 | 60 | 297 | 4.0 | 10.0 | 0.00 | 0.00 | 0.00 | 50 | 1020.6 |
| 20260502051704 | 60 | 297 | 5.0 | 10.0 | 0.00 | 0.00 | 0.00 | 50 | 1020.6 |
| 20260502051604 | 60 | 297 | 5.0 | 10.0 | 0.00 | 0.00 | 0.00 | 50 | 1020.6 |
| 20260502051504 | 60 | 297 | 5.0 | 10.0 | 0.00 | 0.00 | 0.00 | 50 | 1020.5 |
| 20260502051404 | 60 | 297 | 4.0 | 10.0 | 0.00 | 0.00 | 0.00 | 50 | 1020.5 |
| 20260502051304 | 60 | 297 | 4.0 | 10.0 | 0.00 | 0.00 | 0.00 | 50 | 1020.6 |
| 20260502051204 | 60 | 297 | 4.0 | 10.0 | 0.00 | 0.00 | 0.00 | 50 | 1020.5 |
| 20260502051104 | 60 | 298 | 4.0 | 10.0 | 0.00 | 0.00 | 0.00 | 50 | 1020.5 |
| 20260502051004 | 60 | 297 | 4.0 | 9.0 | 0.00 | 0.00 | 0.00 | 50 | 1020.5 |
| 20260502050904 | 59 | 297 | 4.0 | 9.0 | 0.00 | 0.00 | 0.00 | 50 | 1020.5 |
| 20260502050804 | 59 | 296 | 4.0 | 9.0 | 0.00 | 0.00 | 0.00 | 50 | 1020.5 |
| 20260502050704 | 59 | 296 | 4.0 | 9.0 | 0.00 | 0.00 | 0.00 | 50 | 1020.5 |
| 20260502050604 | 59 | 298 | 4.0 | 9.0 | 0.00 | 0.00 | 0.00 | 50 | 1020.4 |
| 20260502050504 | 59 | 298 | 4.0 | 10.0 | 0.00 | 0.00 | 0.00 | 50 | 1020.5 |
| 20260502050404 | 59 | 298 | 4.0 | 10.0 | 0.00 | 0.00 | 0.00 | 50 | 1020.4 |
| 20260502050304 | 59 | 298 | 4.0 | 10.0 | 0.00 | 0.00 | 0.00 | 50 | 1020.5 |
| 20260502050204 | 59 | 298 | 4.0 | 10.0 | 0.00 | 0.00 | 0.00 | 50 | 1020.5 |
| 20260502050104 | 59 | 298 | 4.0 | 10.0 | 0.00 | 0.00 | 0.00 | 50 | 1020.5 |
| 20260502050004 | 59 | 296 | 4.0 | 10.0 | 0.00 | 0.00 | 0.00 | 50 | 1020.4 |
| 20260502045904 | 59 | 298 | 4.0 | 10.0 | 0.00 | 0.00 | 0.00 | 50 | 1020.4 |
| 20260502045804 | 59 | 299 | 4.0 | 10.0 | 0.00 | 0.00 | 0.00 | 50 | 1020.5 |
| 20260502045704 | 59 | 299 | 4.0 | 10.0 | 0.00 | 0.00 | 0.00 | 50 | 1020.5 |
| 20260502045604 | 59 | 298 | 4.0 | 10.0 | 0.00 | 0.00 | 0.00 | 50 | 1020.4 |
| 20260502045504 | 58 | 296 | 4.0 | 8.0 | 0.00 | 0.00 | 0.00 | 50 | 1020.4 |
| 20260502045404 | 58 | 297 | 4.0 | 8.0 | 0.00 | 0.00 | 0.00 | 51 | 1020.5 |
| 20260502045306 | 58 | 296 | 4.0 | 8.0 | 0.00 | 0.00 | 0.00 | 51 | 1020.4 |
| 20260502045204 | 58 | 295 | 4.0 | 8.0 | 0.00 | 0.00 | 0.00 | 51 | 1020.4 |
| 20260502045104 | 58 | 295 | 4.0 | 8.0 | 0.00 | 0.00 | 0.00 | 51 | 1020.4 |
| 20260502045004 | 58 | 297 | 4.0 | 11.0 | 0.00 | 0.00 | 0.00 | 51 | 1020.4 |
| 20260502044904 | 58 | 296 | 3.0 | 11.0 | 0.00 | 0.00 | 0.00 | 51 | 1020.4 |
| 20260502044804 | 58 | 296 | 3.0 | 11.0 | 0.00 | 0.00 | 0.00 | 51 | 1020.4 |
| 20260502044704 | 58 | 296 | 3.0 | 11.0 | 0.00 | 0.00 | 0.00 | 51 | 1020.4 |
| 20260502044604 | 58 | 297 | 3.0 | 11.0 | 0.00 | 0.00 | 0.00 | 51 | 1020.4 |
| 20260502044504 | 58 | 297 | 2.0 | 11.0 | 0.00 | 0.00 | 0.00 | 51 | 1020.4 |
| 20260502044404 | 58 | 297 | 2.0 | 11.0 | 0.00 | 0.00 | 0.00 | 51 | 1020.4 |
| 20260502044304 | 58 | 297 | 2.0 | 11.0 | 0.00 | 0.00 | 0.00 | 52 | 1020.4 |
| 20260502044204 | 58 | 298 | 2.0 | 11.0 | 0.00 | 0.00 | 0.00 | 52 | 1020.3 |
| 20260502044104 | 57 | 298 | 2.0 | 11.0 | 0.00 | 0.00 | 0.00 | 52 | 1020.4 |
| 20260502044004 | 57 | 298 | 1.0 | 5.0 | 0.00 | 0.00 | 0.00 | 52 | 1020.3 |
| 20260502043904 | 57 | 299 | 1.0 | 5.0 | 0.00 | 0.00 | 0.00 | 52 | 1020.3 |
| 20260502043804 | 57 | 298 | 1.0 | 5.0 | 0.00 | 0.00 | 0.00 | 53 | 1020.3 |
| 20260502043704 | 57 | 297 | 1.0 | 5.0 | 0.00 | 0.00 | 0.00 | 53 | 1020.3 |
| 20260502043604 | 57 | 297 | 1.0 | 4.0 | 0.00 | 0.00 | 0.00 | 53 | 1020.3 |
| 20260502043504 | 57 | 297 | 1.0 | 4.0 | 0.00 | 0.00 | 0.00 | 53 | 1020.3 |
| 20260502043404 | 57 | 296 | 1.0 | 4.0 | 0.00 | 0.00 | 0.00 | 53 | 1020.3 |
| 20260502043204 | 57 | 298 | 1.0 | 4.0 | 0.00 | 0.00 | 0.00 | 53 | 1020.2 |
| 20260502043103 | 57 | 298 | 1.0 | 4.0 | 0.00 | 0.00 | 0.00 | 53 | 1020.3 |
| 20260502043004 | 57 | 298 | 1.0 | 4.0 | 0.00 | 0.00 | 0.00 | 53 | 1020.3 |
| 20260502042903 | 57 | 298 | 1.0 | 4.0 | 0.00 | 0.00 | 0.00 | 53 | 1020.3 |
| 20260502042803 | 57 | 299 | 1.0 | 4.0 | 0.00 | 0.00 | 0.00 | 53 | 1020.3 |
| 20260502042704 | 57 | 299 | 1.0 | 4.0 | 0.00 | 0.00 | 0.00 | 53 | 1020.2 |
| 20260502042603 | 57 | 302 | 1.0 | 4.0 | 0.00 | 0.00 | 0.00 | 53 | 1020.2 |
| 20260502042503 | 57 | 302 | 1.0 | 4.0 | 0.00 | 0.00 | 0.00 | 53 | 1020.3 |
| 20260502042403 | 57 | 301 | 1.0 | 4.0 | 0.00 | 0.00 | 0.00 | 53 | 1020.4 |
| 20260502042306 | 57 | 303 | 1.0 | 4.0 | 0.00 | 0.00 | 0.00 | 53 | 1020.4 |
| 20260502042203 | 56 | 302 | 0.0 | 4.0 | 0.00 | 0.00 | 0.00 | 53 | 1020.4 |
| 20260502042104 | 57 | 301 | 0.0 | 4.0 | 0.00 | 0.00 | 0.00 | 54 | 1020.4 |
| 20260502042003 | 57 | 301 | 0.0 | 4.0 | 0.00 | 0.00 | 0.00 | 54 | 1020.4 |
| 20260502041903 | 56 | 301 | 0.0 | 4.0 | 0.00 | 0.00 | 0.00 | 53 | 1020.3 |
| 20260502041803 | 56 | 300 | 0.0 | 4.0 | 0.00 | 0.00 | 0.00 | 53 | 1020.3 |
| 20260502041703 | 56 | 299 | 0.0 | 4.0 | 0.00 | 0.00 | 0.00 | 53 | 1020.3 |
| 20260502041603 | 56 | 293 | 0.0 | 4.0 | 0.00 | 0.00 | 0.00 | 54 | 1020.3 |
| 20260502041503 | 56 | 293 | 0.0 | 4.0 | 0.00 | 0.00 | 0.00 | 54 | 1020.3 |
| 20260502041403 | 56 | 295 | 0.0 | 3.0 | 0.00 | 0.00 | 0.00 | 54 | 1020.3 |
| 20260502041303 | 56 | 297 | 0.0 | 3.0 | 0.00 | 0.00 | 0.00 | 54 | 1020.3 |
| 20260502041203 | 56 | 301 | 0.0 | 3.0 | 0.00 | 0.00 | 0.00 | 54 | 1020.4 |
| 20260502041103 | 56 | 300 | 0.0 | 3.0 | 0.00 | 0.00 | 0.00 | 54 | 1020.4 |
| 20260502041003 | 56 | 300 | 0.0 | 3.0 | 0.00 | 0.00 | 0.00 | 54 | 1020.2 |
| 20260502040903 | 56 | 299 | 0.0 | 3.0 | 0.00 | 0.00 | 0.00 | 54 | 1020.3 |
| 20260502040803 | 56 | 300 | 1.0 | 3.0 | 0.00 | 0.00 | 0.00 | 54 | 1020.3 |
| 20260502040703 | 56 | 300 | 1.0 | 3.0 | 0.00 | 0.00 | 0.00 | 54 | 1020.3 |
| 20260502040603 | 56 | 301 | 1.0 | 2.0 | 0.00 | 0.00 | 0.00 | 54 | 1020.3 |
| 20260502040503 | 56 | 301 | 0.0 | 2.0 | 0.00 | 0.00 | 0.00 | 54 | 1020.2 |
| 20260502040403 | 56 | 300 | 0.0 | 2.0 | 0.00 | 0.00 | 0.00 | 54 | 1020.2 |
| 20260502040303 | 56 | 300 | 1.0 | 2.0 | 0.00 | 0.00 | 0.00 | 54 | 1020.2 |
| 20260502040203 | 56 | 297 | 1.0 | 2.0 | 0.00 | 0.00 | 0.00 | 54 | 1020.2 |
| 20260502040103 | 56 | 297 | 0.0 | 2.0 | 0.00 | 0.00 | 0.00 | 54 | 1020.3 |
| 20260502040003 | 56 | 297 | 0.0 | 2.0 | 0.00 | 0.00 | 0.00 | 54 | 1020.3 |
| 20260502035903 | 56 | 298 | 0.0 | 2.0 | 0.00 | 0.00 | 0.00 | 54 | 1020.3 |
| 20260502035803 | 56 | 295 | 0.0 | 2.0 | 0.00 | 0.00 | 0.00 | 53 | 1020.3 |
| 20260502035703 | 56 | 295 | 0.0 | 2.0 | 0.00 | 0.00 | 0.00 | 53 | 1020.3 |
| 20260502035603 | 56 | 295 | 0.0 | 2.0 | 0.00 | 0.00 | 0.00 | 53 | 1020.3 |
| 20260502035503 | 56 | 295 | 0.0 | 2.0 | 0.00 | 0.00 | 0.00 | 53 | 1020.3 |
| 20260502035403 | 56 | 295 | 0.0 | 2.0 | 0.00 | 0.00 | 0.00 | 53 | 1020.3 |
| 20260502035306 | 56 | 292 | 0.0 | 2.0 | 0.00 | 0.00 | 0.00 | 53 | 1020.3 |
| 20260502035203 | 56 | 292 | 0.0 | 2.0 | 0.00 | 0.00 | 0.00 | 53 | 1020.2 |
| 20260502035103 | 57 | 292 | 0.0 | 2.0 | 0.00 | 0.00 | 0.00 | 53 | 1020.3 |
| 20260502035003 | 57 | 292 | 0.0 | 2.0 | 0.00 | 0.00 | 0.00 | 53 | 1020.3 |
| 20260502034903 | 57 | 292 | 0.0 | 2.0 | 0.00 | 0.00 | 0.00 | 53 | 1020.3 |
| 20260502034803 | 57 | 292 | 0.0 | 2.0 | 0.00 | 0.00 | 0.00 | 53 | 1020.3 |
| 20260502034703 | 57 | 292 | 0.0 | 2.0 | 0.00 | 0.00 | 0.00 | 53 | 1020.2 |
| 20260502034603 | 57 | 292 | 0.0 | 1.0 | 0.00 | 0.00 | 0.00 | 53 | 1020.3 |
| 20260502034503 | 57 | 292 | 0.0 | 1.0 | 0.00 | 0.00 | 0.00 | 53 | 1020.3 |
| 20260502034403 | 57 | 292 | 0.0 | 1.0 | 0.00 | 0.00 | 0.00 | 53 | 1020.2 |
| 20260502034303 | 57 | 292 | 0.0 | 1.0 | 0.00 | 0.00 | 0.00 | 53 | 1020.3 |
| 20260502034203 | 57 | 292 | 0.0 | 1.0 | 0.00 | 0.00 | 0.00 | 53 | 1020.3 |
| 20260502034103 | 57 | 292 | 0.0 | 2.0 | 0.00 | 0.00 | 0.00 | 52 | 1020.3 |
| 20260502034007 | 57 | 298 | 0.0 | 2.0 | 0.00 | 0.00 | 0.00 | 53 | 1020.3 |
| 20260502033903 | 57 | 298 | 0.0 | 2.0 | 0.00 | 0.00 | 0.00 | 53 | 1020.2 |
| 20260502033803 | 57 | 306 | 0.0 | 2.0 | 0.00 | 0.00 | 0.00 | 53 | 1020.3 |
| 20260502033703 | 57 | 306 | 0.0 | 2.0 | 0.00 | 0.00 | 0.00 | 52 | 1020.3 |
| 20260502033603 | 57 | 306 | 0.0 | 2.0 | 0.00 | 0.00 | 0.00 | 52 | 1020.3 |
| 20260502033503 | 57 | 306 | 0.0 | 2.0 | 0.00 | 0.00 | 0.00 | 52 | 1020.3 |
| 20260502033403 | 57 | 306 | 0.0 | 2.0 | 0.00 | 0.00 | 0.00 | 52 | 1020.3 |
| 20260502033303 | 57 | 306 | 0.0 | 2.0 | 0.00 | 0.00 | 0.00 | 52 | 1020.3 |
| 20260502033203 | 57 | 304 | 0.0 | 2.0 | 0.00 | 0.00 | 0.00 | 52 | 1020.3 |
| 20260502033103 | 57 | 305 | 0.0 | 4.0 | 0.00 | 0.00 | 0.00 | 52 | 1020.3 |
| 20260502033007 | 57 | 304 | 0.0 | 4.0 | 0.00 | 0.00 | 0.00 | 52 | 1020.2 |
| 20260502032903 | 57 | 304 | 0.0 | 4.0 | 0.00 | 0.00 | 0.00 | 52 | 1020.2 |
| 20260502032803 | 57 | 296 | 1.0 | 5.0 | 0.00 | 0.00 | 0.00 | 52 | 1020.2 |
| 20260502032703 | 57 | 297 | 1.0 | 5.0 | 0.00 | 0.00 | 0.00 | 52 | 1020.1 |
| 20260502032603 | 57 | 295 | 1.0 | 5.0 | 0.00 | 0.00 | 0.00 | 52 | 1020.1 |
| 20260502032503 | 57 | 295 | 1.0 | 5.0 | 0.00 | 0.00 | 0.00 | 52 | 1020.2 |
| 20260502032403 | 57 | 295 | 1.0 | 5.0 | 0.00 | 0.00 | 0.00 | 52 | 1020.2 |
| 20260502032305 | 58 | 294 | 1.0 | 5.0 | 0.00 | 0.00 | 0.00 | 52 | 1020.2 |
| 20260502032203 | 58 | 294 | 1.0 | 5.0 | 0.00 | 0.00 | 0.00 | 52 | 1020.0 |
| 20260502032103 | 58 | 295 | 1.0 | 5.0 | 0.00 | 0.00 | 0.00 | 52 | 1020.1 |
| 20260502032003 | 58 | 294 | 1.0 | 5.0 | 0.00 | 0.00 | 0.00 | 52 | 1020.0 |
| 20260502031903 | 58 | 294 | 1.0 | 5.0 | 0.00 | 0.00 | 0.00 | 52 | 1020.1 |
| 20260502031803 | 58 | 296 | 1.0 | 5.0 | 0.00 | 0.00 | 0.00 | 52 | 1020.1 |
| 20260502031703 | 58 | 294 | 1.0 | 5.0 | 0.00 | 0.00 | 0.00 | 52 | 1020.2 |
| 20260502031603 | 58 | 295 | 1.0 | 5.0 | 0.00 | 0.00 | 0.00 | 52 | 1020.3 |
| 20260502031503 | 58 | 295 | 1.0 | 5.0 | 0.00 | 0.00 | 0.00 | 52 | 1020.1 |
| 20260502031403 | 58 | 294 | 1.0 | 5.0 | 0.00 | 0.00 | 0.00 | 52 | 1020.1 |
| 20260502031303 | 58 | 295 | 1.0 | 6.0 | 0.00 | 0.00 | 0.00 | 51 | 1020.2 |
| 20260502031203 | 58 | 298 | 1.0 | 6.0 | 0.00 | 0.00 | 0.00 | 51 | 1020.2 |
| 20260502031103 | 58 | 296 | 2.0 | 6.0 | 0.00 | 0.00 | 0.00 | 51 | 1020.2 |
| 20260502031003 | 58 | 296 | 2.0 | 6.0 | 0.00 | 0.00 | 0.00 | 51 | 1020.3 |
| 20260502030903 | 58 | 297 | 2.0 | 6.0 | 0.00 | 0.00 | 0.00 | 51 | 1020.4 |
| 20260502030803 | 58 | 298 | 2.0 | 6.0 | 0.00 | 0.00 | 0.00 | 51 | 1020.3 |
| 20260502030703 | 58 | 299 | 2.0 | 6.0 | 0.00 | 0.00 | 0.00 | 51 | 1020.3 |
| 20260502030603 | 58 | 300 | 2.0 | 6.0 | 0.00 | 0.00 | 0.00 | 51 | 1020.3 |
| 20260502030503 | 58 | 300 | 2.0 | 6.0 | 0.00 | 0.00 | 0.00 | 51 | 1020.2 |
| 20260502030403 | 58 | 300 | 2.0 | 6.0 | 0.00 | 0.00 | 0.00 | 51 | 1020.3 |
| 20260502030303 | 58 | 302 | 2.0 | 6.0 | 0.00 | 0.00 | 0.00 | 51 | 1020.3 |
| 20260502030203 | 58 | 299 | 2.0 | 6.0 | 0.00 | 0.00 | 0.00 | 51 | 1020.3 |
| 20260502030003 | 58 | 301 | 2.0 | 6.0 | 0.00 | 0.00 | 0.00 | 51 | 1020.3 |
| 20260502025903 | 58 | 301 | 2.0 | 6.0 | 0.00 | 0.00 | 0.00 | 51 | 1020.3 |
| 20260502025803 | 58 | 300 | 2.0 | 6.0 | 0.00 | 0.00 | 0.00 | 51 | 1020.3 |
| 20260502025703 | 58 | 299 | 2.0 | 6.0 | 0.00 | 0.00 | 0.00 | 51 | 1020.3 |
| 20260502025603 | 58 | 299 | 3.0 | 6.0 | 0.00 | 0.00 | 0.00 | 51 | 1020.3 |
| 20260502025504 | 58 | 300 | 3.0 | 6.0 | 0.00 | 0.00 | 0.00 | 51 | 1020.3 |
| 20260502025407 | 58 | 300 | 3.0 | 6.0 | 0.00 | 0.00 | 0.00 | 51 | 1020.3 |
| 20260502025306 | 58 | 301 | 3.0 | 6.0 | 0.00 | 0.00 | 0.00 | 52 | 1020.3 |
| 20260502025204 | 58 | 302 | 3.0 | 6.0 | 0.00 | 0.00 | 0.00 | 52 | 1020.3 |
| 20260502025004 | 57 | 302 | 3.0 | 6.0 | 0.00 | 0.00 | 0.00 | 52 | 1020.3 |
| 20260502024904 | 57 | 301 | 3.0 | 6.0 | 0.00 | 0.00 | 0.00 | 52 | 1020.2 |
| 20260502024804 | 57 | 301 | 3.0 | 6.0 | 0.00 | 0.00 | 0.00 | 52 | 1020.3 |
| 20260502024704 | 57 | 301 | 3.0 | 6.0 | 0.00 | 0.00 | 0.00 | 53 | 1020.3 |
| 20260502024604 | 57 | 301 | 3.0 | 6.0 | 0.00 | 0.00 | 0.00 | 53 | 1020.3 |
| 20260502024504 | 57 | 299 | 3.0 | 6.0 | 0.00 | 0.00 | 0.00 | 53 | 1020.3 |
| 20260502024404 | 57 | 299 | 3.0 | 6.0 | 0.00 | 0.00 | 0.00 | 53 | 1020.3 |
| 20260502024304 | 57 | 298 | 3.0 | 6.0 | 0.00 | 0.00 | 0.00 | 53 | 1020.3 |
| 20260502024204 | 57 | 297 | 3.0 | 6.0 | 0.00 | 0.00 | 0.00 | 53 | 1020.1 |
| 20260502024104 | 57 | 296 | 3.0 | 6.0 | 0.00 | 0.00 | 0.00 | 54 | 1020.2 |
| 20260502024004 | 57 | 296 | 2.0 | 6.0 | 0.00 | 0.00 | 0.00 | 55 | 1020.3 |
| 20260502023904 | 57 | 297 | 2.0 | 6.0 | 0.00 | 0.00 | 0.00 | 55 | 1020.1 |
| 20260502023804 | 57 | 297 | 2.0 | 6.0 | 0.00 | 0.00 | 0.00 | 56 | 1020.1 |
| 20260502023704 | 57 | 295 | 1.0 | 6.0 | 0.00 | 0.00 | 0.00 | 56 | 1020.1 |
| 20260502023604 | 57 | 296 | 1.0 | 6.0 | 0.00 | 0.00 | 0.00 | 56 | 1020.2 |
| 20260502023504 | 57 | 295 | 1.0 | 5.0 | 0.00 | 0.00 | 0.00 | 56 | 1020.2 |
| 20260502023404 | 57 | 296 | 1.0 | 5.0 | 0.00 | 0.00 | 0.00 | 56 | 1020.2 |
| 20260502023304 | 57 | 295 | 1.0 | 5.0 | 0.00 | 0.00 | 0.00 | 56 | 1020.1 |
| 20260502023204 | 57 | 294 | 1.0 | 5.0 | 0.00 | 0.00 | 0.00 | 56 | 1020.1 |
| 20260502023104 | 57 | 294 | 1.0 | 5.0 | 0.00 | 0.00 | 0.00 | 56 | 1020.0 |
| 20260502023004 | 57 | 294 | 1.0 | 5.0 | 0.00 | 0.00 | 0.00 | 56 | 1020.0 |
| 20260502022904 | 57 | 294 | 2.0 | 5.0 | 0.00 | 0.00 | 0.00 | 56 | 1020.1 |
| 20260502022804 | 57 | 293 | 1.0 | 5.0 | 0.00 | 0.00 | 0.00 | 57 | 1020.2 |
| 20260502022704 | 57 | 294 | 2.0 | 5.0 | 0.00 | 0.00 | 0.00 | 56 | 1020.2 |
| 20260502022604 | 57 | 295 | 1.0 | 5.0 | 0.00 | 0.00 | 0.00 | 57 | 1020.1 |
| 20260502022504 | 57 | 296 | 1.0 | 4.0 | 0.00 | 0.00 | 0.00 | 57 | 1020.1 |
| 20260502022404 | 57 | 294 | 1.0 | 4.0 | 0.00 | 0.00 | 0.00 | 57 | 1020.2 |
| 20260502022306 | 57 | 294 | 1.0 | 4.0 | 0.00 | 0.00 | 0.00 | 57 | 1020.3 |
| 20260502022204 | 57 | 295 | 1.0 | 4.0 | 0.00 | 0.00 | 0.00 | 57 | 1020.2 |
| 20260502022104 | 57 | 295 | 1.0 | 3.0 | 0.00 | 0.00 | 0.00 | 57 | 1020.2 |
| 20260502022004 | 57 | 295 | 1.0 | 3.0 | 0.00 | 0.00 | 0.00 | 57 | 1020.1 |
| 20260502021804 | 57 | 296 | 1.0 | 3.0 | 0.00 | 0.00 | 0.00 | 58 | 1020.3 |
| 20260502021704 | 57 | 294 | 1.0 | 3.0 | 0.00 | 0.00 | 0.00 | 58 | 1020.3 |
| 20260502021604 | 57 | 294 | 1.0 | 3.0 | 0.00 | 0.00 | 0.00 | 58 | 1020.3 |
| 20260502021504 | 57 | 294 | 1.0 | 3.0 | 0.00 | 0.00 | 0.00 | 58 | 1020.3 |
| 20260502021403 | 57 | 295 | 0.0 | 3.0 | 0.00 | 0.00 | 0.00 | 59 | 1020.2 |
| 20260502021304 | 57 | 296 | 0.0 | 2.0 | 0.00 | 0.00 | 0.00 | 59 | 1020.2 |
| 20260502021203 | 57 | 301 | 0.0 | 2.0 | 0.00 | 0.00 | 0.00 | 59 | 1020.2 |
| 20260502021104 | 57 | 308 | 0.0 | 2.0 | 0.00 | 0.00 | 0.00 | 59 | 1020.1 |
| 20260502021004 | 57 | 315 | 0.0 | 2.0 | 0.00 | 0.00 | 0.00 | 60 | 1020.1 |
| 20260502020904 | 57 | 315 | 0.0 | 2.0 | 0.00 | 0.00 | 0.00 | 60 | 1020.1 |
| 20260502020804 | 57 | 315 | 0.0 | 2.0 | 0.00 | 0.00 | 0.00 | 60 | 1020.2 |
| 20260502020703 | 57 | 315 | 0.0 | 2.0 | 0.00 | 0.00 | 0.00 | 60 | 1020.1 |
| 20260502020603 | 57 | 315 | 0.0 | 2.0 | 0.00 | 0.00 | 0.00 | 60 | 1020.2 |
| 20260502020504 | 57 | 315 | 0.0 | 2.0 | 0.00 | 0.00 | 0.00 | 60 | 1020.2 |
| 20260502020403 | 57 | 313 | 0.0 | 2.0 | 0.00 | 0.00 | 0.00 | 60 | 1020.2 |
| 20260502020304 | 57 | 306 | 0.0 | 2.0 | 0.00 | 0.00 | 0.00 | 60 | 1020.3 |
| 20260502020204 | 57 | 303 | 0.0 | 2.0 | 0.00 | 0.00 | 0.00 | 60 | 1020.3 |
| 20260502020103 | 57 | 292 | 0.0 | 2.0 | 0.00 | 0.00 | 0.00 | 60 | 1020.3 |
| 20260502020004 | 57 | 292 | 0.0 | 2.0 | 0.00 | 0.00 | 0.00 | 60 | 1020.3 |
| 20260502015903 | 57 | 292 | 0.0 | 2.0 | 0.00 | 0.00 | 0.00 | 60 | 1020.3 |
| 20260502015803 | 57 | 292 | 0.0 | 2.0 | 0.00 | 0.00 | 0.00 | 60 | 1020.2 |
| 20260502015703 | 57 | 292 | 0.0 | 2.0 | 0.00 | 0.00 | 0.00 | 60 | 1020.2 |
| 20260502015603 | 57 | 292 | 0.0 | 2.0 | 0.00 | 0.00 | 0.00 | 60 | 1020.1 |
| 20260502015503 | 57 | 292 | 0.0 | 3.0 | 0.00 | 0.00 | 0.00 | 60 | 1020.2 |
| 20260502015403 | 58 | 292 | 0.0 | 3.0 | 0.00 | 0.00 | 0.00 | 60 | 1020.1 |
| 20260502015305 | 58 | 292 | 0.0 | 3.0 | 0.00 | 0.00 | 0.00 | 60 | 1020.1 |
| 20260502015203 | 58 | 292 | 0.0 | 3.0 | 0.00 | 0.00 | 0.00 | 60 | 1020.2 |
| 20260502015103 | 58 | 293 | 0.0 | 4.0 | 0.00 | 0.00 | 0.00 | 60 | 1020.1 |
| 20260502015003 | 58 | 295 | 1.0 | 4.0 | 0.00 | 0.00 | 0.00 | 60 | 1020.1 |
| 20260502014903 | 58 | 295 | 1.0 | 4.0 | 0.00 | 0.00 | 0.00 | 60 | 1020.2 |
| 20260502014803 | 58 | 294 | 1.0 | 4.0 | 0.00 | 0.00 | 0.00 | 60 | 1020.1 |
| 20260502014703 | 58 | 294 | 1.0 | 4.0 | 0.00 | 0.00 | 0.00 | 60 | 1020.2 |
| 20260502014603 | 58 | 294 | 1.0 | 4.0 | 0.00 | 0.00 | 0.00 | 60 | 1020.1 |
| 20260502014503 | 58 | 294 | 1.0 | 4.0 | 0.00 | 0.00 | 0.00 | 60 | 1020.2 |
| 20260502014403 | 58 | 294 | 1.0 | 4.0 | 0.00 | 0.00 | 0.00 | 60 | 1020.1 |
| 20260502014303 | 58 | 294 | 1.0 | 4.0 | 0.00 | 0.00 | 0.00 | 60 | 1020.1 |
| 20260502014203 | 58 | 294 | 2.0 | 5.0 | 0.00 | 0.00 | 0.00 | 60 | 1020.0 |
| 20260502014103 | 58 | 294 | 2.0 | 5.0 | 0.00 | 0.00 | 0.00 | 60 | 1020.0 |
| 20260502014003 | 58 | 293 | 1.0 | 5.0 | 0.00 | 0.00 | 0.00 | 60 | 1020.1 |
| 20260502013903 | 58 | 293 | 2.0 | 5.0 | 0.00 | 0.00 | 0.00 | 60 | 1020.0 |
| 20260502013803 | 58 | 294 | 2.0 | 5.0 | 0.00 | 0.00 | 0.00 | 60 | 1020.1 |
| 20260502013703 | 58 | 294 | 2.0 | 5.0 | 0.00 | 0.00 | 0.00 | 60 | 1020.1 |
| 20260502013603 | 58 | 294 | 2.0 | 5.0 | 0.00 | 0.00 | 0.00 | 59 | 1020.0 |
| 20260502013503 | 58 | 295 | 2.0 | 5.0 | 0.00 | 0.00 | 0.00 | 59 | 1020.0 |
| 20260502013403 | 58 | 296 | 1.0 | 5.0 | 0.00 | 0.00 | 0.00 | 59 | 1020.0 |
| 20260502013303 | 58 | 295 | 1.0 | 5.0 | 0.00 | 0.00 | 0.00 | 59 | 1020.1 |
| 20260502013203 | 58 | 296 | 1.0 | 5.0 | 0.00 | 0.00 | 0.00 | 59 | 1020.0 |
| 20260502013103 | 58 | 297 | 1.0 | 5.0 | 0.00 | 0.00 | 0.00 | 59 | 1020.0 |
| 20260502013003 | 58 | 298 | 1.0 | 6.0 | 0.00 | 0.00 | 0.00 | 59 | 1020.0 |
| 20260502012903 | 58 | 299 | 1.0 | 6.0 | 0.00 | 0.00 | 0.00 | 59 | 1020.0 |
| 20260502012803 | 58 | 300 | 1.0 | 6.0 | 0.00 | 0.00 | 0.00 | 59 | 1020.0 |
| 20260502012703 | 58 | 302 | 1.0 | 6.0 | 0.00 | 0.00 | 0.00 | 59 | 1019.9 |
| 20260502012603 | 58 | 300 | 2.0 | 6.0 | 0.00 | 0.00 | 0.00 | 59 | 1019.9 |
| 20260502012503 | 58 | 300 | 2.0 | 6.0 | 0.00 | 0.00 | 0.00 | 59 | 1019.9 |
| 20260502012403 | 58 | 301 | 2.0 | 6.0 | 0.00 | 0.00 | 0.00 | 59 | 1019.9 |
| 20260502012306 | 58 | 301 | 2.0 | 6.0 | 0.00 | 0.00 | 0.00 | 59 | 1020.0 |
| 20260502012203 | 58 | 301 | 3.0 | 6.0 | 0.00 | 0.00 | 0.00 | 59 | 1019.9 |
| 20260502012103 | 58 | 300 | 3.0 | 6.0 | 0.00 | 0.00 | 0.00 | 59 | 1019.9 |
| 20260502012003 | 58 | 300 | 3.0 | 7.0 | 0.00 | 0.00 | 0.00 | 59 | 1019.9 |
| 20260502011903 | 58 | 299 | 3.0 | 7.0 | 0.00 | 0.00 | 0.00 | 59 | 1019.9 |
| 20260502011803 | 59 | 298 | 3.0 | 7.0 | 0.00 | 0.00 | 0.00 | 59 | 1019.9 |
| 20260502011703 | 59 | 298 | 3.0 | 7.0 | 0.00 | 0.00 | 0.00 | 59 | 1019.9 |
| 20260502011603 | 59 | 299 | 3.0 | 7.0 | 0.00 | 0.00 | 0.00 | 58 | 1020.0 |
| 20260502011506 | 59 | 298 | 3.0 | 7.0 | 0.00 | 0.00 | 0.00 | 58 | 1020.0 |
| 20260502011403 | 59 | 298 | 3.0 | 7.0 | 0.00 | 0.00 | 0.00 | 58 | 1020.0 |
| 20260502011303 | 59 | 297 | 2.0 | 7.0 | 0.00 | 0.00 | 0.00 | 57 | 1019.9 |
| 20260502011203 | 59 | 296 | 2.0 | 7.0 | 0.00 | 0.00 | 0.00 | 57 | 1020.0 |
| 20260502011103 | 59 | 295 | 3.0 | 7.0 | 0.00 | 0.00 | 0.00 | 57 | 1019.9 |
| 20260502011003 | 59 | 294 | 2.0 | 6.0 | 0.00 | 0.00 | 0.00 | 56 | 1020.1 |
| 20260502010903 | 59 | 295 | 2.0 | 6.0 | 0.00 | 0.00 | 0.00 | 55 | 1020.1 |
| 20260502010803 | 59 | 295 | 2.0 | 6.0 | 0.00 | 0.00 | 0.00 | 55 | 1019.9 |
| 20260502010703 | 59 | 294 | 2.0 | 6.0 | 0.00 | 0.00 | 0.00 | 54 | 1020.0 |
| 20260502010603 | 59 | 294 | 2.0 | 6.0 | 0.00 | 0.00 | 0.00 | 54 | 1020.1 |
| 20260502010503 | 59 | 296 | 2.0 | 6.0 | 0.00 | 0.00 | 0.00 | 54 | 1020.1 |
| 20260502010403 | 59 | 296 | 2.0 | 6.0 | 0.00 | 0.00 | 0.00 | 54 | 1020.1 |
| 20260502010303 | 59 | 296 | 2.0 | 6.0 | 0.00 | 0.00 | 0.00 | 54 | 1020.3 |
| 20260502010203 | 59 | 297 | 3.0 | 6.0 | 0.00 | 0.00 | 0.00 | 54 | 1020.2 |
| 20260502010003 | 59 | 299 | 2.0 | 6.0 | 0.00 | 0.00 | 0.00 | 54 | 1020.2 |
| 20260502005903 | 59 | 299 | 2.0 | 6.0 | 0.00 | 0.00 | 0.00 | 54 | 1020.1 |
| 20260502005803 | 59 | 301 | 3.0 | 6.0 | 0.00 | 0.00 | 0.00 | 54 | 1020.0 |
| 20260502005703 | 59 | 301 | 3.0 | 6.0 | 0.00 | 0.00 | 0.00 | 54 | 1019.9 |
| 20260502005603 | 59 | 301 | 2.0 | 6.0 | 0.00 | 0.00 | 0.00 | 54 | 1019.9 |
| 20260502005503 | 58 | 300 | 3.0 | 6.0 | 0.00 | 0.00 | 0.00 | 54 | 1020.1 |
| 20260502005403 | 58 | 299 | 3.0 | 6.0 | 0.00 | 0.00 | 0.00 | 54 | 1020.1 |
| 20260502005305 | 58 | 299 | 2.0 | 6.0 | 0.00 | 0.00 | 0.00 | 54 | 1020.1 |
| 20260502005203 | 58 | 300 | 2.0 | 6.0 | 0.00 | 0.00 | 0.00 | 54 | 1020.1 |
| 20260502005103 | 58 | 300 | 2.0 | 6.0 | 0.00 | 0.00 | 0.00 | 54 | 1020.0 |
| 20260502005003 | 58 | 298 | 2.0 | 6.0 | 0.00 | 0.00 | 0.00 | 54 | 1020.1 |
| 20260502004903 | 58 | 299 | 2.0 | 6.0 | 0.00 | 0.00 | 0.00 | 54 | 1020.0 |
| 20260502004803 | 58 | 296 | 2.0 | 6.0 | 0.00 | 0.00 | 0.00 | 55 | 1019.9 |
| 20260502004703 | 58 | 296 | 2.0 | 6.0 | 0.00 | 0.00 | 0.00 | 55 | 1020.0 |
| 20260502004603 | 58 | 297 | 2.0 | 6.0 | 0.00 | 0.00 | 0.00 | 55 | 1019.9 |
| 20260502004503 | 58 | 297 | 2.0 | 6.0 | 0.00 | 0.00 | 0.00 | 55 | 1019.9 |
| 20260502004403 | 58 | 297 | 2.0 | 6.0 | 0.00 | 0.00 | 0.00 | 55 | 1020.0 |
| 20260502004303 | 58 | 297 | 1.0 | 6.0 | 0.00 | 0.00 | 0.00 | 55 | 1020.0 |
| 20260502004203 | 58 | 296 | 2.0 | 6.0 | 0.00 | 0.00 | 0.00 | 55 | 1020.0 |
| 20260502004103 | 58 | 296 | 2.0 | 6.0 | 0.00 | 0.00 | 0.00 | 55 | 1019.9 |
| 20260502004003 | 58 | 295 | 1.0 | 6.0 | 0.00 | 0.00 | 0.00 | 55 | 1019.9 |
| 20260502003904 | 58 | 294 | 1.0 | 5.0 | 0.00 | 0.00 | 0.00 | 56 | 1019.8 |
| 20260502003804 | 58 | 294 | 1.0 | 5.0 | 0.00 | 0.00 | 0.00 | 56 | 1019.8 |
| 20260502003704 | 58 | 293 | 1.0 | 5.0 | 0.00 | 0.00 | 0.00 | 56 | 1019.9 |
| 20260502003604 | 58 | 292 | 1.0 | 5.0 | 0.00 | 0.00 | 0.00 | 56 | 1019.8 |
| 20260502003504 | 58 | 292 | 1.0 | 5.0 | 0.00 | 0.00 | 0.00 | 56 | 1019.8 |
| 20260502003404 | 58 | 292 | 1.0 | 5.0 | 0.00 | 0.00 | 0.00 | 56 | 1019.7 |
| 20260502003304 | 58 | 292 | 1.0 | 5.0 | 0.00 | 0.00 | 0.00 | 57 | 1019.7 |
| 20260502003204 | 58 | 292 | 1.0 | 5.0 | 0.00 | 0.00 | 0.00 | 57 | 1019.7 |
| 20260502003104 | 58 | 293 | 1.0 | 5.0 | 0.00 | 0.00 | 0.00 | 57 | 1019.7 |
| 20260502003004 | 58 | 293 | 1.0 | 5.0 | 0.00 | 0.00 | 0.00 | 57 | 1019.7 |
| 20260502002904 | 58 | 293 | 1.0 | 5.0 | 0.00 | 0.00 | 0.00 | 57 | 1019.8 |
| 20260502002804 | 58 | 293 | 1.0 | 5.0 | 0.00 | 0.00 | 0.00 | 57 | 1019.8 |
| 20260502002704 | 58 | 293 | 1.0 | 5.0 | 0.00 | 0.00 | 0.00 | 57 | 1019.8 |
| 20260502002604 | 58 | 293 | 1.0 | 5.0 | 0.00 | 0.00 | 0.00 | 57 | 1019.8 |
| 20260502002504 | 58 | 293 | 1.0 | 5.0 | 0.00 | 0.00 | 0.00 | 57 | 1019.7 |
| 20260502002404 | 58 | 293 | 1.0 | 5.0 | 0.00 | 0.00 | 0.00 | 57 | 1019.7 |
| 20260502002305 | 58 | 293 | 1.0 | 5.0 | 0.00 | 0.00 | 0.00 | 57 | 1019.7 |
| 20260502002204 | 58 | 293 | 1.0 | 3.0 | 0.00 | 0.00 | 0.00 | 57 | 1019.8 |
| 20260502002104 | 58 | 293 | 1.0 | 3.0 | 0.00 | 0.00 | 0.00 | 57 | 1019.7 |
| 20260502002004 | 58 | 293 | 1.0 | 3.0 | 0.00 | 0.00 | 0.00 | 57 | 1019.7 |
| 20260502001904 | 58 | 293 | 1.0 | 3.0 | 0.00 | 0.00 | 0.00 | 57 | 1019.7 |
| 20260502001804 | 58 | 293 | 1.0 | 3.0 | 0.00 | 0.00 | 0.00 | 57 | 1019.7 |
| 20260502001704 | 58 | 294 | 1.0 | 3.0 | 0.00 | 0.00 | 0.00 | 57 | 1019.7 |
| 20260502001604 | 58 | 294 | 1.0 | 3.0 | 0.00 | 0.00 | 0.00 | 57 | 1019.7 |
| 20260502001504 | 58 | 293 | 1.0 | 3.0 | 0.00 | 0.00 | 0.00 | 57 | 1019.7 |
| 20260502001404 | 58 | 293 | 1.0 | 3.0 | 0.00 | 0.00 | 0.00 | 57 | 1019.7 |
| 20260502001304 | 58 | 294 | 1.0 | 3.0 | 0.00 | 0.00 | 0.00 | 57 | 1019.7 |
| 20260502001204 | 58 | 294 | 1.0 | 3.0 | 0.00 | 0.00 | 0.00 | 57 | 1019.8 |
| 20260502001104 | 58 | 294 | 1.0 | 3.0 | 0.00 | 0.00 | 0.00 | 57 | 1019.8 |
| 20260502001004 | 58 | 294 | 1.0 | 3.0 | 0.00 | 0.00 | 0.00 | 57 | 1019.8 |
| 20260502000904 | 58 | 294 | 1.0 | 3.0 | 0.00 | 0.00 | 0.00 | 57 | 1019.7 |
| 20260502000804 | 58 | 294 | 1.0 | 3.0 | 0.00 | 0.00 | 0.00 | 57 | 1019.7 |
| 20260502000704 | 58 | 293 | 1.0 | 3.0 | 0.00 | 0.00 | 0.00 | 57 | 1019.8 |
| 20260502000604 | 58 | 293 | 1.0 | 3.0 | 0.00 | 0.00 | 0.00 | 57 | 1019.7 |
| 20260502000504 | 58 | 293 | 1.0 | 3.0 | 0.00 | 0.00 | 0.00 | 57 | 1019.7 |
| 20260502000403 | 58 | 293 | 1.0 | 3.0 | 0.00 | 0.00 | 0.00 | 57 | 1019.7 |
| 20260502000303 | 58 | 292 | 1.0 | 3.0 | 0.00 | 0.00 | 0.00 | 57 | 1019.7 |
| 20260502000204 | 58 | 292 | 1.0 | 3.0 | 0.00 | 0.00 | 0.00 | 57 | 1019.7 |
| 20260502000004 | 58 | 292 | 1.0 | 3.0 | 0.00 | 0.00 | 0.00 | 57 | 1019.7 |
| 20260501235904 | 58 | 292 | 1.0 | 3.0 | 0.00 | 0.00 | 0.00 | 57 | 1019.7 |
| 20260501235804 | 58 | 292 | 1.0 | 3.0 | 0.00 | 0.00 | 0.00 | 57 | 1019.7 |
| 20260501235704 | 58 | 292 | 1.0 | 3.0 | 0.00 | 0.00 | 0.00 | 57 | 1019.7 |
| 20260501235603 | 58 | 292 | 1.0 | 3.0 | 0.00 | 0.00 | 0.00 | 57 | 1019.7 |
| 20260501235504 | 58 | 292 | 1.0 | 3.0 | 0.00 | 0.00 | 0.00 | 58 | 1019.6 |
| 20260501235403 | 58 | 292 | 1.0 | 3.0 | 0.00 | 0.00 | 0.00 | 58 | 1019.7 |
| 20260501235305 | 58 | 294 | 1.0 | 4.0 | 0.00 | 0.00 | 0.00 | 58 | 1019.7 |
| 20260501235203 | 58 | 294 | 1.0 | 4.0 | 0.00 | 0.00 | 0.00 | 58 | 1019.7 |
| 20260501235103 | 58 | 294 | 1.0 | 4.0 | 0.00 | 0.00 | 0.00 | 58 | 1019.6 |
| 20260501235003 | 58 | 294 | 1.0 | 4.0 | 0.00 | 0.00 | 0.00 | 58 | 1019.6 |
| 20260501234903 | 58 | 294 | 1.0 | 4.0 | 0.00 | 0.00 | 0.00 | 58 | 1019.7 |
| 20260501234803 | 58 | 294 | 1.0 | 4.0 | 0.00 | 0.00 | 0.00 | 58 | 1019.6 |
| 20260501234703 | 58 | 294 | 1.0 | 4.0 | 0.00 | 0.00 | 0.00 | 58 | 1019.6 |
| 20260501234603 | 58 | 294 | 1.0 | 4.0 | 0.00 | 0.00 | 0.00 | 58 | 1019.7 |
| 20260501234503 | 58 | 294 | 1.0 | 4.0 | 0.00 | 0.00 | 0.00 | 59 | 1019.7 |
| 20260501234403 | 58 | 294 | 1.0 | 4.0 | 0.00 | 0.00 | 0.00 | 59 | 1019.7 |
| 20260501234303 | 58 | 292 | 1.0 | 4.0 | 0.00 | 0.00 | 0.00 | 59 | 1019.7 |
| 20260501234203 | 58 | 292 | 1.0 | 4.0 | 0.00 | 0.00 | 0.00 | 59 | 1019.7 |
| 20260501234103 | 58 | 293 | 1.0 | 4.0 | 0.00 | 0.00 | 0.00 | 59 | 1019.7 |
| 20260501234003 | 58 | 293 | 1.0 | 4.0 | 0.00 | 0.00 | 0.00 | 59 | 1019.6 |
| 20260501233903 | 58 | 293 | 1.0 | 4.0 | 0.00 | 0.00 | 0.00 | 59 | 1019.7 |
| 20260501233803 | 58 | 293 | 1.0 | 4.0 | 0.00 | 0.00 | 0.00 | 59 | 1019.7 |
| 20260501233703 | 58 | 293 | 1.0 | 4.0 | 0.00 | 0.00 | 0.00 | 60 | 1019.7 |
| 20260501233603 | 59 | 293 | 1.0 | 4.0 | 0.00 | 0.00 | 0.00 | 60 | 1019.7 |
| 20260501233503 | 58 | 293 | 1.0 | 4.0 | 0.00 | 0.00 | 0.00 | 60 | 1019.7 |
| 20260501233403 | 59 | 293 | 1.0 | 4.0 | 0.00 | 0.00 | 0.00 | 60 | 1019.7 |
| 20260501233303 | 59 | 293 | 1.0 | 4.0 | 0.00 | 0.00 | 0.00 | 60 | 1019.7 |
| 20260501233203 | 59 | 293 | 1.0 | 4.0 | 0.00 | 0.00 | 0.00 | 60 | 1019.7 |
| 20260501233103 | 59 | 293 | 1.0 | 4.0 | 0.00 | 0.00 | 0.00 | 60 | 1019.7 |
| 20260501233003 | 59 | 293 | 1.0 | 4.0 | 0.00 | 0.00 | 0.00 | 60 | 1019.8 |
| 20260501232903 | 59 | 292 | 1.0 | 4.0 | 0.00 | 0.00 | 0.00 | 60 | 1019.8 |
| 20260501232803 | 59 | 292 | 1.0 | 4.0 | 0.00 | 0.00 | 0.00 | 60 | 1019.8 |
| 20260501232703 | 59 | 289 | 1.0 | 4.0 | 0.00 | 0.00 | 0.00 | 60 | 1019.9 |
| 20260501232603 | 59 | 290 | 1.0 | 4.0 | 0.00 | 0.00 | 0.00 | 60 | 1019.8 |
| 20260501232503 | 59 | 290 | 1.0 | 4.0 | 0.00 | 0.00 | 0.00 | 60 | 1019.9 |
| 20260501232403 | 59 | 290 | 1.0 | 3.0 | 0.00 | 0.00 | 0.00 | 60 | 1020.0 |
| 20260501232306 | 59 | 289 | 1.0 | 3.0 | 0.00 | 0.00 | 0.00 | 61 | 1019.9 |
| 20260501232203 | 59 | 289 | 1.0 | 3.0 | 0.00 | 0.00 | 0.00 | 61 | 1019.9 |
| 20260501232103 | 59 | 289 | 1.0 | 3.0 | 0.00 | 0.00 | 0.00 | 61 | 1019.8 |
| 20260501232003 | 59 | 289 | 1.0 | 3.0 | 0.00 | 0.00 | 0.00 | 61 | 1020.0 |
| 20260501231903 | 59 | 289 | 1.0 | 3.0 | 0.00 | 0.00 | 0.00 | 61 | 1020.0 |
| 20260501231803 | 59 | 289 | 1.0 | 3.0 | 0.00 | 0.00 | 0.00 | 61 | 1020.0 |
| 20260501231703 | 59 | 292 | 1.0 | 3.0 | 0.00 | 0.00 | 0.00 | 61 | 1020.0 |
| 20260501231603 | 59 | 293 | 1.0 | 3.0 | 0.00 | 0.00 | 0.00 | 61 | 1020.0 |
| 20260501231503 | 59 | 294 | 1.0 | 3.0 | 0.00 | 0.00 | 0.00 | 61 | 1020.0 |
| 20260501231403 | 59 | 294 | 1.0 | 3.0 | 0.00 | 0.00 | 0.00 | 61 | 1020.0 |
| 20260501231303 | 59 | 295 | 1.0 | 3.0 | 0.00 | 0.00 | 0.00 | 61 | 1020.0 |
| 20260501231204 | 59 | 295 | 1.0 | 3.0 | 0.00 | 0.00 | 0.00 | 61 | 1020.0 |
| 20260501231003 | 59 | 294 | 1.0 | 6.0 | 0.00 | 0.00 | 0.00 | 61 | 1020.0 |
| 20260501230903 | 59 | 295 | 1.0 | 6.0 | 0.00 | 0.00 | 0.00 | 61 | 1020.0 |
| 20260501230803 | 59 | 295 | 2.0 | 6.0 | 0.00 | 0.00 | 0.00 | 61 | 1020.0 |
| 20260501230703 | 59 | 297 | 2.0 | 6.0 | 0.00 | 0.00 | 0.00 | 61 | 1020.0 |
| 20260501230603 | 59 | 297 | 2.0 | 6.0 | 0.00 | 0.00 | 0.00 | 61 | 1020.0 |
| 20260501230503 | 59 | 295 | 2.0 | 6.0 | 0.00 | 0.00 | 0.00 | 61 | 1020.1 |
| 20260501230403 | 59 | 295 | 2.0 | 6.0 | 0.00 | 0.00 | 0.00 | 61 | 1020.1 |
| 20260501230303 | 59 | 296 | 2.0 | 6.0 | 0.00 | 0.00 | 0.00 | 61 | 1020.1 |
| 20260501230203 | 59 | 297 | 2.0 | 6.0 | 0.00 | 0.00 | 0.00 | 60 | 1020.2 |
| 20260501230003 | 59 | 297 | 2.0 | 6.0 | 0.00 | 0.00 | 0.00 | 60 | 1020.2 |
| 20260501225903 | 59 | 296 | 2.0 | 6.0 | 0.00 | 0.00 | 0.00 | 60 | 1020.2 |
| 20260501225803 | 59 | 296 | 2.0 | 6.0 | 0.00 | 0.00 | 0.00 | 60 | 1020.3 |
| 20260501225703 | 59 | 294 | 2.0 | 6.0 | 0.00 | 0.00 | 0.00 | 60 | 1020.3 |
| 20260501225603 | 59 | 294 | 2.0 | 4.0 | 0.00 | 0.00 | 0.00 | 60 | 1020.3 |
| 20260501225503 | 59 | 294 | 2.0 | 4.0 | 0.00 | 0.00 | 0.00 | 60 | 1020.2 |
| 20260501225403 | 59 | 294 | 1.0 | 4.0 | 0.00 | 0.00 | 0.00 | 60 | 1020.1 |
| 20260501225305 | 59 | 293 | 1.0 | 4.0 | 0.00 | 0.00 | 0.00 | 60 | 1020.2 |
| 20260501225203 | 60 | 292 | 1.0 | 4.0 | 0.00 | 0.00 | 0.00 | 60 | 1020.2 |
| 20260501225103 | 60 | 292 | 1.0 | 4.0 | 0.00 | 0.00 | 0.00 | 60 | 1020.1 |
| 20260501225003 | 60 | 292 | 1.0 | 4.0 | 0.00 | 0.00 | 0.00 | 60 | 1020.2 |
| 20260501224903 | 60 | 291 | 1.0 | 4.0 | 0.00 | 0.00 | 0.00 | 60 | 1020.0 |
| 20260501224803 | 60 | 292 | 1.0 | 4.0 | 0.00 | 0.00 | 0.00 | 60 | 1020.2 |
| 20260501224703 | 60 | 292 | 1.0 | 4.0 | 0.00 | 0.00 | 0.00 | 60 | 1020.2 |
| 20260501224604 | 60 | 292 | 1.0 | 4.0 | 0.00 | 0.00 | 0.00 | 60 | 1020.2 |
| 20260501224504 | 60 | 292 | 1.0 | 4.0 | 0.00 | 0.00 | 0.00 | 60 | 1020.1 |
| 20260501224404 | 60 | 292 | 1.0 | 4.0 | 0.00 | 0.00 | 0.00 | 60 | 1020.0 |
| 20260501224304 | 60 | 292 | 1.0 | 4.0 | 0.00 | 0.00 | 0.00 | 60 | 1020.0 |
| 20260501224204 | 60 | 292 | 1.0 | 4.0 | 0.00 | 0.00 | 0.00 | 60 | 1020.0 |
| 20260501224104 | 60 | 292 | 1.0 | 4.0 | 0.00 | 0.00 | 0.00 | 60 | 1020.1 |
| 20260501224004 | 60 | 293 | 1.0 | 4.0 | 0.00 | 0.00 | 0.00 | 60 | 1020.1 |
| 20260501223904 | 60 | 293 | 1.0 | 4.0 | 0.00 | 0.00 | 0.00 | 60 | 1020.1 |
| 20260501223804 | 60 | 294 | 1.0 | 4.0 | 0.00 | 0.00 | 0.00 | 60 | 1020.1 |
| 20260501223704 | 60 | 294 | 1.0 | 4.0 | 0.00 | 0.00 | 0.00 | 60 | 1020.1 |
| 20260501223604 | 60 | 294 | 1.0 | 3.0 | 0.00 | 0.00 | 0.00 | 60 | 1020.0 |
| 20260501223504 | 60 | 294 | 1.0 | 4.0 | 0.00 | 0.00 | 0.00 | 60 | 1020.1 |
| 20260501223404 | 60 | 294 | 1.0 | 4.0 | 0.00 | 0.00 | 0.00 | 60 | 1020.1 |
| 20260501223304 | 60 | 294 | 1.0 | 4.0 | 0.00 | 0.00 | 0.00 | 60 | 1020.1 |
| 20260501223204 | 60 | 294 | 1.0 | 4.0 | 0.00 | 0.00 | 0.00 | 60 | 1020.1 |
| 20260501223104 | 60 | 294 | 1.0 | 4.0 | 0.00 | 0.00 | 0.00 | 60 | 1020.2 |
| 20260501223004 | 60 | 292 | 1.0 | 4.0 | 0.00 | 0.00 | 0.00 | 60 | 1020.1 |
| 20260501222904 | 60 | 292 | 1.0 | 4.0 | 0.00 | 0.00 | 0.00 | 60 | 1020.1 |
| 20260501222804 | 60 | 293 | 1.0 | 4.0 | 0.00 | 0.00 | 0.00 | 60 | 1020.1 |
| 20260501222704 | 60 | 295 | 1.0 | 4.0 | 0.00 | 0.00 | 0.00 | 60 | 1020.0 |
| 20260501222604 | 60 | 295 | 1.0 | 4.0 | 0.00 | 0.00 | 0.00 | 60 | 1020.1 |
| 20260501222504 | 60 | 295 | 1.0 | 3.0 | 0.00 | 0.00 | 0.00 | 60 | 1020.1 |
| 20260501222404 | 60 | 295 | 1.0 | 3.0 | 0.00 | 0.00 | 0.00 | 60 | 1020.1 |
| 20260501222305 | 60 | 296 | 1.0 | 3.0 | 0.00 | 0.00 | 0.00 | 60 | 1020.0 |
| 20260501222204 | 60 | 298 | 1.0 | 3.0 | 0.00 | 0.00 | 0.00 | 60 | 1020.1 |
| 20260501222104 | 60 | 298 | 1.0 | 3.0 | 0.00 | 0.00 | 0.00 | 60 | 1020.1 |
| 20260501222004 | 60 | 299 | 1.0 | 3.0 | 0.00 | 0.00 | 0.00 | 61 | 1020.1 |
| 20260501221904 | 60 | 298 | 1.0 | 3.0 | 0.00 | 0.00 | 0.00 | 61 | 1020.0 |
| 20260501221804 | 60 | 298 | 1.0 | 3.0 | 0.00 | 0.00 | 0.00 | 61 | 1020.0 |
| 20260501221704 | 60 | 295 | 1.0 | 3.0 | 0.00 | 0.00 | 0.00 | 61 | 1020.0 |
| 20260501221604 | 60 | 295 | 1.0 | 3.0 | 0.00 | 0.00 | 0.00 | 61 | 1020.0 |
| 20260501221504 | 60 | 296 | 1.0 | 4.0 | 0.00 | 0.00 | 0.00 | 61 | 1020.0 |
| 20260501221404 | 60 | 294 | 1.0 | 5.0 | 0.00 | 0.00 | 0.00 | 61 | 1020.1 |
| 20260501221304 | 60 | 294 | 1.0 | 5.0 | 0.00 | 0.00 | 0.00 | 61 | 1020.2 |
| 20260501221204 | 60 | 292 | 1.0 | 5.0 | 0.00 | 0.00 | 0.00 | 61 | 1020.0 |
| 20260501221104 | 60 | 292 | 1.0 | 5.0 | 0.00 | 0.00 | 0.00 | 61 | 1020.1 |
| 20260501221004 | 59 | 292 | 1.0 | 5.0 | 0.00 | 0.00 | 0.00 | 61 | 1020.1 |
| 20260501220904 | 60 | 293 | 1.0 | 5.0 | 0.00 | 0.00 | 0.00 | 61 | 1020.2 |
| 20260501220804 | 60 | 293 | 1.0 | 5.0 | 0.00 | 0.00 | 0.00 | 61 | 1020.2 |
| 20260501220704 | 60 | 294 | 1.0 | 5.0 | 0.00 | 0.00 | 0.00 | 61 | 1020.1 |
| 20260501220604 | 60 | 294 | 1.0 | 5.0 | 0.00 | 0.00 | 0.00 | 61 | 1020.2 |
| 20260501220504 | 60 | 292 | 1.0 | 5.0 | 0.00 | 0.00 | 0.00 | 61 | 1020.2 |
| 20260501220404 | 60 | 294 | 0.0 | 2.0 | 0.00 | 0.00 | 0.00 | 61 | 1020.2 |
| 20260501220304 | 60 | 295 | 0.0 | 2.0 | 0.00 | 0.00 | 0.00 | 61 | 1020.1 |
| 20260501220203 | 60 | 294 | 0.0 | 2.0 | 0.00 | 0.00 | 0.00 | 61 | 1020.1 |
| 20260501220104 | 60 | 294 | 0.0 | 2.0 | 0.00 | 0.00 | 0.00 | 60 | 1020.1 |
| 20260501220038 | 60 | 294 | 0.0 | 4.0 | 0.00 | 0.00 | 0.00 | 60 | 1020.2 |
| 20260501215904 | 59 | 292 | 0.0 | 4.0 | 0.00 | 0.00 | 0.00 | 60 | 1020.1 |
| 20260501215803 | 59 | 292 | 0.0 | 4.0 | 0.00 | 0.00 | 0.00 | 60 | 1020.1 |
| 20260501215704 | 59 | 292 | 0.0 | 4.0 | 0.00 | 0.00 | 0.00 | 60 | 1020.2 |
| 20260501215603 | 59 | 292 | 1.0 | 4.0 | 0.00 | 0.00 | 0.00 | 60 | 1020.1 |
| 20260501215503 | 59 | 292 | 1.0 | 4.0 | 0.00 | 0.00 | 0.00 | 60 | 1020.1 |
| 20260501215404 | 59 | 292 | 1.0 | 4.0 | 0.00 | 0.00 | 0.00 | 60 | 1020.2 |
| 20260501215305 | 59 | 292 | 1.0 | 4.0 | 0.00 | 0.00 | 0.00 | 60 | 1020.2 |
| 20260501215203 | 59 | 292 | 1.0 | 4.0 | 0.00 | 0.00 | 0.00 | 60 | 1020.2 |
| 20260501215103 | 59 | 293 | 1.0 | 4.0 | 0.00 | 0.00 | 0.00 | 60 | 1020.2 |
| 20260501215003 | 59 | 293 | 1.0 | 4.0 | 0.00 | 0.00 | 0.00 | 60 | 1020.2 |
| 20260501214903 | 59 | 293 | 1.0 | 4.0 | 0.00 | 0.00 | 0.00 | 60 | 1020.2 |
| 20260501214803 | 59 | 293 | 1.0 | 4.0 | 0.00 | 0.00 | 0.00 | 60 | 1020.3 |
| 20260501214703 | 59 | 293 | 1.0 | 4.0 | 0.00 | 0.00 | 0.00 | 60 | 1020.3 |
| 20260501214603 | 59 | 293 | 1.0 | 4.0 | 0.00 | 0.00 | 0.00 | 60 | 1020.3 |
| 20260501214503 | 59 | 293 | 1.0 | 4.0 | 0.00 | 0.00 | 0.00 | 60 | 1020.2 |
| 20260501214403 | 59 | 293 | 1.0 | 4.0 | 0.00 | 0.00 | 0.00 | 60 | 1020.2 |
| 20260501214303 | 59 | 294 | 1.0 | 4.0 | 0.00 | 0.00 | 0.00 | 60 | 1020.3 |
| 20260501214203 | 59 | 294 | 1.0 | 4.0 | 0.00 | 0.00 | 0.00 | 60 | 1020.3 |
| 20260501214103 | 60 | 293 | 1.0 | 4.0 | 0.00 | 0.00 | 0.00 | 60 | 1020.2 |
| 20260501214003 | 60 | 293 | 1.0 | 4.0 | 0.00 | 0.00 | 0.00 | 60 | 1020.1 |
| 20260501213903 | 60 | 293 | 1.0 | 4.0 | 0.00 | 0.00 | 0.00 | 60 | 1020.2 |
| 20260501213803 | 60 | 293 | 1.0 | 3.0 | 0.00 | 0.00 | 0.00 | 60 | 1020.2 |
| 20260501213703 | 60 | 293 | 1.0 | 3.0 | 0.00 | 0.00 | 0.00 | 60 | 1020.3 |
| 20260501213603 | 60 | 293 | 1.0 | 3.0 | 0.00 | 0.00 | 0.00 | 60 | 1020.2 |
| 20260501213503 | 60 | 293 | 1.0 | 3.0 | 0.00 | 0.00 | 0.00 | 60 | 1020.2 |
| 20260501213403 | 60 | 293 | 1.0 | 3.0 | 0.00 | 0.00 | 0.00 | 60 | 1020.2 |
| 20260501213303 | 60 | 292 | 1.0 | 4.0 | 0.00 | 0.00 | 0.00 | 60 | 1020.2 |
| 20260501213203 | 60 | 292 | 1.0 | 4.0 | 0.00 | 0.00 | 0.00 | 60 | 1020.2 |
| 20260501213103 | 60 | 291 | 1.0 | 4.0 | 0.00 | 0.00 | 0.00 | 60 | 1020.3 |
| 20260501213003 | 60 | 291 | 1.0 | 4.0 | 0.00 | 0.00 | 0.00 | 60 | 1020.2 |
| 20260501212903 | 60 | 291 | 1.0 | 4.0 | 0.00 | 0.00 | 0.00 | 60 | 1020.3 |
| 20260501212803 | 60 | 291 | 1.0 | 4.0 | 0.00 | 0.00 | 0.00 | 60 | 1020.3 |
| 20260501212703 | 60 | 291 | 1.0 | 4.0 | 0.00 | 0.00 | 0.00 | 60 | 1020.3 |
| 20260501212603 | 60 | 291 | 1.0 | 4.0 | 0.00 | 0.00 | 0.00 | 60 | 1020.2 |
| 20260501212503 | 60 | 291 | 1.0 | 4.0 | 0.00 | 0.00 | 0.00 | 60 | 1020.2 |
| 20260501212403 | 59 | 291 | 1.0 | 4.0 | 0.00 | 0.00 | 0.00 | 60 | 1020.3 |
| 20260501212306 | 59 | 292 | 1.0 | 3.0 | 0.00 | 0.00 | 0.00 | 60 | 1020.2 |
| 20260501212203 | 59 | 292 | 1.0 | 3.0 | 0.00 | 0.00 | 0.00 | 60 | 1020.3 |
| 20260501212103 | 59 | 293 | 1.0 | 3.0 | 0.00 | 0.00 | 0.00 | 60 | 1020.3 |
| 20260501212003 | 59 | 293 | 1.0 | 3.0 | 0.00 | 0.00 | 0.00 | 60 | 1020.3 |
| 20260501211903 | 59 | 293 | 1.0 | 3.0 | 0.00 | 0.00 | 0.00 | 60 | 1020.3 |
| 20260501211803 | 59 | 293 | 1.0 | 3.0 | 0.00 | 0.00 | 0.00 | 60 | 1020.3 |
| 20260501211703 | 59 | 293 | 1.0 | 3.0 | 0.00 | 0.00 | 0.00 | 60 | 1020.3 |
| 20260501211603 | 59 | 293 | 1.0 | 3.0 | 0.00 | 0.00 | 0.00 | 60 | 1020.2 |
| 20260501211503 | 59 | 293 | 1.0 | 3.0 | 0.00 | 0.00 | 0.00 | 60 | 1020.3 |
| 20260501211403 | 59 | 293 | 1.0 | 3.0 | 0.00 | 0.00 | 0.00 | 60 | 1020.3 |
| 20260501211303 | 59 | 292 | 1.0 | 3.0 | 0.00 | 0.00 | 0.00 | 60 | 1020.2 |
| 20260501211203 | 59 | 292 | 1.0 | 3.0 | 0.00 | 0.00 | 0.00 | 60 | 1020.3 |
| 20260501211103 | 59 | 292 | 1.0 | 3.0 | 0.00 | 0.00 | 0.00 | 59 | 1020.2 |
| 20260501211003 | 59 | 292 | 1.0 | 3.0 | 0.00 | 0.00 | 0.00 | 59 | 1020.2 |
| 20260501210903 | 59 | 292 | 1.0 | 3.0 | 0.00 | 0.00 | 0.00 | 59 | 1020.2 |
| 20260501210803 | 59 | 292 | 1.0 | 3.0 | 0.00 | 0.00 | 0.00 | 59 | 1020.2 |
| 20260501210703 | 59 | 292 | 1.0 | 3.0 | 0.00 | 0.00 | 0.00 | 59 | 1020.3 |
| 20260501210603 | 59 | 292 | 1.0 | 2.0 | 0.00 | 0.00 | 0.00 | 59 | 1020.3 |
| 20260501210503 | 59 | 292 | 1.0 | 2.0 | 0.00 | 0.00 | 0.00 | 59 | 1020.3 |
| 20260501210403 | 59 | 292 | 1.0 | 2.0 | 0.00 | 0.00 | 0.00 | 59 | 1020.1 |
| 20260501210303 | 59 | 292 | 1.0 | 2.0 | 0.00 | 0.00 | 0.00 | 59 | 1020.1 |
| 20260501210203 | 59 | 293 | 1.0 | 2.0 | 0.00 | 0.00 | 0.00 | 59 | 1020.2 |
| 20260501210103 | 59 | 293 | 1.0 | 2.0 | 0.00 | 0.00 | 0.00 | 59 | 1020.1 |
| 20260501210003 | 59 | 293 | 1.0 | 2.0 | 0.00 | 0.00 | 0.00 | 59 | 1020.2 |
| 20260501205903 | 59 | 293 | 1.0 | 2.0 | 0.00 | 0.00 | 0.00 | 59 | 1020.1 |
| 20260501205803 | 59 | 293 | 0.0 | 2.0 | 0.00 | 0.00 | 0.00 | 59 | 1020.1 |
| 20260501205703 | 59 | 293 | 0.0 | 2.0 | 0.00 | 0.00 | 0.00 | 59 | 1020.1 |
| 20260501205603 | 59 | 293 | 0.0 | 2.0 | 0.00 | 0.00 | 0.00 | 59 | 1020.1 |
| 20260501205503 | 59 | 294 | 0.0 | 2.0 | 0.00 | 0.00 | 0.00 | 59 | 1020.0 |
| 20260501205403 | 59 | 292 | 0.0 | 2.0 | 0.00 | 0.00 | 0.00 | 59 | 1020.1 |
| 20260501205306 | 59 | 292 | 0.0 | 4.0 | 0.00 | 0.00 | 0.00 | 59 | 1020.1 |
| 20260501205203 | 59 | 292 | 0.0 | 4.0 | 0.00 | 0.00 | 0.00 | 59 | 1020.0 |
| 20260501205103 | 59 | 292 | 1.0 | 4.0 | 0.00 | 0.00 | 0.00 | 59 | 1019.9 |
| 20260501205003 | 59 | 292 | 1.0 | 4.0 | 0.00 | 0.00 | 0.00 | 59 | 1020.0 |
| 20260501204903 | 59 | 292 | 1.0 | 4.0 | 0.00 | 0.00 | 0.00 | 59 | 1020.1 |
| 20260501204803 | 60 | 292 | 1.0 | 4.0 | 0.00 | 0.00 | 0.00 | 59 | 1020.0 |
| 20260501204703 | 60 | 292 | 1.0 | 4.0 | 0.00 | 0.00 | 0.00 | 59 | 1020.0 |
| 20260501204603 | 60 | 292 | 1.0 | 4.0 | 0.00 | 0.00 | 0.00 | 59 | 1020.0 |
| 20260501204503 | 60 | 292 | 1.0 | 4.0 | 0.00 | 0.00 | 0.00 | 58 | 1020.2 |
| 20260501204403 | 60 | 293 | 1.0 | 4.0 | 0.00 | 0.00 | 0.00 | 58 | 1020.1 |
| 20260501204303 | 60 | 293 | 1.0 | 4.0 | 0.00 | 0.00 | 0.00 | 58 | 1020.1 |
| 20260501204203 | 60 | 292 | 0.0 | 4.0 | 0.00 | 0.00 | 0.00 | 58 | 1020.0 |
| 20260501204103 | 60 | 292 | 0.0 | 2.0 | 0.00 | 0.00 | 0.00 | 58 | 1020.1 |
| 20260501204003 | 60 | 292 | 0.0 | 3.0 | 0.00 | 0.00 | 0.00 | 58 | 1020.0 |
| 20260501203903 | 60 | 292 | 0.0 | 3.0 | 0.00 | 0.00 | 0.00 | 58 | 1020.0 |
| 20260501203803 | 60 | 292 | 0.0 | 3.0 | 0.00 | 0.00 | 0.00 | 58 | 1020.1 |
| 20260501203703 | 60 | 292 | 0.0 | 3.0 | 0.00 | 0.00 | 0.00 | 58 | 1020.1 |
| 20260501203603 | 60 | 292 | 0.0 | 3.0 | 0.00 | 0.00 | 0.00 | 58 | 1020.0 |
| 20260501203503 | 60 | 292 | 1.0 | 3.0 | 0.00 | 0.00 | 0.00 | 58 | 1020.0 |
| 20260501203403 | 60 | 292 | 0.0 | 3.0 | 0.00 | 0.00 | 0.00 | 57 | 1020.0 |
| 20260501203303 | 60 | 292 | 0.0 | 3.0 | 0.00 | 0.00 | 0.00 | 57 | 1020.0 |
| 20260501203203 | 60 | 292 | 0.0 | 3.0 | 0.00 | 0.00 | 0.00 | 57 | 1020.0 |
| 20260501203103 | 60 | 292 | 1.0 | 3.0 | 0.00 | 0.00 | 0.00 | 57 | 1020.1 |
| 20260501203003 | 60 | 293 | 0.0 | 3.0 | 0.00 | 0.00 | 0.00 | 57 | 1020.1 |
| 20260501202903 | 60 | 293 | 0.0 | 3.0 | 0.00 | 0.00 | 0.00 | 57 | 1020.0 |
| 20260501202803 | 60 | 293 | 0.0 | 3.0 | 0.00 | 0.00 | 0.00 | 57 | 1020.0 |
| 20260501202703 | 60 | 293 | 0.0 | 3.0 | 0.00 | 0.00 | 0.00 | 57 | 1020.0 |
| 20260501202603 | 60 | 293 | 0.0 | 3.0 | 0.00 | 0.00 | 0.00 | 57 | 1020.0 |
| 20260501202503 | 60 | 293 | 0.0 | 3.0 | 0.00 | 0.00 | 0.00 | 57 | 1020.0 |
| 20260501202403 | 60 | 293 | 0.0 | 3.0 | 0.00 | 0.00 | 0.00 | 57 | 1019.9 |
| 20260501202306 | 60 | 293 | 0.0 | 3.0 | 0.00 | 0.00 | 0.00 | 57 | 1019.9 |
| 20260501202203 | 60 | 294 | 0.0 | 2.0 | 0.00 | 0.00 | 0.00 | 57 | 1019.9 |
| 20260501202103 | 60 | 294 | 0.0 | 2.0 | 0.00 | 0.00 | 0.00 | 57 | 1019.9 |
| 20260501202004 | 60 | 292 | 0.0 | 2.0 | 0.00 | 0.00 | 0.00 | 57 | 1020.0 |
| 20260501201904 | 60 | 292 | 0.0 | 2.0 | 0.00 | 0.00 | 0.00 | 57 | 1020.0 |
| 20260501201804 | 60 | 292 | 0.0 | 2.0 | 0.00 | 0.00 | 0.00 | 57 | 1020.1 |
| 20260501201704 | 60 | 292 | 0.0 | 2.0 | 0.00 | 0.00 | 0.00 | 57 | 1020.0 |
| 20260501201604 | 60 | 292 | 0.0 | 2.0 | 0.00 | 0.00 | 0.00 | 57 | 1020.0 |
| 20260501201504 | 60 | 292 | 0.0 | 2.0 | 0.00 | 0.00 | 0.00 | 57 | 1019.9 |
| 20260501201404 | 60 | 294 | 0.0 | 3.0 | 0.00 | 0.00 | 0.00 | 57 | 1020.0 |
| 20260501201304 | 60 | 292 | 1.0 | 3.0 | 0.00 | 0.00 | 0.00 | 57 | 1020.1 |
| 20260501201204 | 60 | 291 | 0.0 | 3.0 | 0.00 | 0.00 | 0.00 | 57 | 1020.1 |
| 20260501201104 | 60 | 292 | 1.0 | 5.0 | 0.00 | 0.00 | 0.00 | 57 | 1020.0 |
| 20260501201004 | 60 | 294 | 1.0 | 5.0 | 0.00 | 0.00 | 0.00 | 57 | 1020.1 |
| 20260501200904 | 60 | 294 | 1.0 | 5.0 | 0.00 | 0.00 | 0.00 | 57 | 1020.1 |
| 20260501200804 | 60 | 294 | 1.0 | 5.0 | 0.00 | 0.00 | 0.00 | 57 | 1020.0 |
| 20260501200704 | 60 | 294 | 1.0 | 5.0 | 0.00 | 0.00 | 0.00 | 57 | 1020.0 |
| 20260501200604 | 60 | 294 | 1.0 | 5.0 | 0.00 | 0.00 | 0.00 | 57 | 1020.0 |
| 20260501200504 | 60 | 293 | 1.0 | 5.0 | 0.00 | 0.00 | 0.00 | 56 | 1020.0 |
| 20260501200404 | 60 | 293 | 1.0 | 5.0 | 0.00 | 0.00 | 0.00 | 57 | 1020.1 |
| 20260501200304 | 60 | 295 | 0.0 | 5.0 | 0.00 | 0.00 | 0.00 | 56 | 1020.1 |
| 20260501200204 | 60 | 294 | 1.0 | 5.0 | 0.00 | 0.00 | 0.00 | 56 | 1020.0 |
| 20260501200104 | 60 | 295 | 0.0 | 4.0 | 0.00 | 0.00 | 0.00 | 56 | 1020.2 |
| 20260501200004 | 60 | 292 | 0.0 | 4.0 | 0.00 | 0.00 | 0.00 | 56 | 1020.2 |
| 20260501195904 | 60 | 292 | 1.0 | 4.0 | 0.00 | 0.00 | 0.00 | 56 | 1020.2 |
| 20260501195804 | 60 | 292 | 1.0 | 4.0 | 0.00 | 0.00 | 0.00 | 56 | 1020.1 |
| 20260501195704 | 60 | 292 | 1.0 | 4.0 | 0.00 | 0.00 | 0.00 | 56 | 1020.1 |
| 20260501195604 | 60 | 292 | 1.0 | 4.0 | 0.00 | 0.00 | 0.00 | 56 | 1020.0 |
| 20260501195504 | 60 | 292 | 1.0 | 4.0 | 0.00 | 0.00 | 0.00 | 56 | 1020.1 |
| 20260501195404 | 60 | 292 | 1.0 | 4.0 | 0.00 | 0.00 | 0.00 | 56 | 1020.0 |
| 20260501195306 | 60 | 292 | 1.0 | 4.0 | 0.00 | 0.00 | 0.00 | 56 | 1020.0 |
| 20260501195204 | 60 | 292 | 1.0 | 4.0 | 0.00 | 0.00 | 0.00 | 56 | 1020.1 |
| 20260501195104 | 60 | 292 | 1.0 | 4.0 | 0.00 | 0.00 | 0.00 | 56 | 1019.9 |
| 20260501195004 | 60 | 292 | 1.0 | 4.0 | 0.00 | 0.00 | 0.00 | 56 | 1019.9 |